Time,TemperatureF,DewpointF,PressureIn,WindDirection,WindDirectionDegrees,WindSpeedMPH,WindSpeedGustMPH,Humidity,HourlyPrecipIn,Conditions,Clouds,dailyrainin,SoftwareType,DateUTC
2013-01-03 00:01:00,23.6,19.8,30.20,SSW,209,7.0,8.0,85,0.00,,,0.00,Wunderground v.1.15,2013-01-03 05:01:00,
2013-01-03 00:03:00,23.6,19.8,30.20,SSW,210,7.0,8.0,85,0.00,,,0.00,Wunderground v.1.15,2013-01-03 05:03:00,
2013-01-03 00:07:00,23.6,19.8,30.19,SW,223,7.0,9.0,85,0.00,,,0.00,Wunderground v.1.15,2013-01-03 05:07:00,
2013-01-03 00:08:00,23.6,19.8,30.19,South,191,7.0,9.0,85,0.00,,,0.00,Wunderground v.1.15,2013-01-03 05:08:00,
2013-01-03 00:12:00,23.6,19.8,30.19,SSW,192,7.0,7.0,85,0.00,,,0.00,Wunderground v.1.15,2013-01-03 05:12:00,
2013-01-03 00:16:00,23.5,19.7,30.19,South,180,6.0,7.0,85,0.00,,,0.00,Wunderground v.1.15,2013-01-03 05:16:00,
2013-01-03 00:17:00,23.5,19.7,30.19,SSW,210,6.0,7.0,85,0.00,,,0.00,Wunderground v.1.15,2013-01-03 05:17:00,
2013-01-03 00:20:00,23.5,19.7,30.19,SSW,201,6.0,7.0,85,0.00,,,0.00,Wunderground v.1.15,2013-01-03 05:20:00,
2013-01-03 00:21:00,23.4,19.6,30.19,SW,214,6.0,8.0,85,0.00,,,0.00,Wunderground v.1.15,2013-01-03 05:21:00,
2013-01-03 00:23:00,23.4,19.6,30.19,South,189,6.0,8.0,85,0.00,,,0.00,Wunderground v.1.15,2013-01-03 05:23:00,
2013-01-03 00:26:00,23.5,19.7,30.19,SW,218,7.0,10.0,85,0.00,,,0.00,Wunderground v.1.15,2013-01-03 05:26:00,
2013-01-03 00:27:00,23.5,19.7,30.19,SSW,210,7.0,10.0,85,0.00,,,0.00,Wunderground v.1.15,2013-01-03 05:27:00,
2013-01-03 00:29:00,23.4,19.6,30.19,SW,216,7.0,10.0,85,0.00,,,0.00,Wunderground v.1.15,2013-01-03 05:29:00,
2013-01-03 00:30:00,23.5,19.7,30.19,South,185,7.0,7.0,85,0.00,,,0.00,Wunderground v.1.15,2013-01-03 05:30:00,
2013-01-03 00:33:00,23.5,19.7,30.19,SSW,210,8.0,9.0,85,0.00,,,0.00,Wunderground v.1.15,2013-01-03 05:33:00,
2013-01-03 00:34:00,23.5,19.7,30.19,SSW,207,8.0,9.0,85,0.00,,,0.00,Wunderground v.1.15,2013-01-03 05:34:00,
2013-01-03 00:36:00,23.5,19.9,30.19,SSW,201,7.0,9.0,86,0.00,,,0.00,Wunderground v.1.15,2013-01-03 05:36:00,
2013-01-03 00:39:00,23.4,19.6,30.19,SW,220,7.0,7.0,85,0.00,,,0.00,Wunderground v.1.15,2013-01-03 05:39:00,
2013-01-03 00:42:00,23.4,19.6,30.19,SSW,207,7.0,8.0,85,0.00,,,0.00,Wunderground v.1.15,2013-01-03 05:42:00,
2013-01-03 00:44:00,23.4,19.6,30.19,WSW,238,7.0,8.0,85,0.00,,,0.00,Wunderground v.1.15,2013-01-03 05:44:00,
2013-01-03 00:45:00,23.4,19.6,30.19,SW,223,7.0,8.0,85,0.00,,,0.00,Wunderground v.1.15,2013-01-03 05:45:00,
2013-01-03 00:47:00,23.4,19.8,30.19,SSW,213,7.0,9.0,86,0.00,,,0.00,Wunderground v.1.15,2013-01-03 05:47:00,
2013-01-03 00:48:00,23.4,19.6,30.19,SW,216,7.0,9.0,85,0.00,,,0.00,Wunderground v.1.15,2013-01-03 05:48:00,
2013-01-03 00:49:00,23.4,19.6,30.19,SSW,212,7.0,9.0,85,0.00,,,0.00,Wunderground v.1.15,2013-01-03 05:49:00,
2013-01-03 00:50:00,23.4,19.6,30.19,SW,235,8.0,9.0,85,0.00,,,0.00,Wunderground v.1.15,2013-01-03 05:50:00,
2013-01-03 00:53:00,23.4,19.6,30.19,SSW,210,8.0,9.0,85,0.00,,,0.00,Wunderground v.1.15,2013-01-03 05:53:00,
2013-01-03 00:55:00,23.4,19.6,30.19,SW,223,8.0,9.0,85,0.00,,,0.00,Wunderground v.1.15,2013-01-03 05:55:00,
2013-01-03 00:57:00,23.4,19.6,30.19,SSW,204,7.0,9.0,85,0.00,,,0.00,Wunderground v.1.15,2013-01-03 05:57:00,
2013-01-03 00:58:00,23.4,19.6,30.19,West,261,7.0,9.0,85,0.00,,,0.00,Wunderground v.1.15,2013-01-03 05:58:00,
2013-01-03 01:01:00,23.4,19.6,30.19,SW,220,7.0,10.0,85,0.00,,,0.00,Wunderground v.1.15,2013-01-03 06:01:00,
2013-01-03 01:03:00,23.4,19.6,30.19,SW,216,7.0,11.0,85,0.00,,,0.00,Wunderground v.1.15,2013-01-03 06:03:00,
2013-01-03 01:06:00,23.4,19.6,30.19,SW,223,8.0,11.0,85,0.00,,,0.00,Wunderground v.1.15,2013-01-03 06:06:00,
2013-01-03 01:07:00,23.4,19.8,30.19,SW,225,8.0,11.0,86,0.00,,,0.00,Wunderground v.1.15,2013-01-03 06:07:00,
2013-01-03 01:08:00,23.4,19.8,30.19,SSW,213,8.0,11.0,86,0.00,,,0.00,Wunderground v.1.15,2013-01-03 06:08:00,
2013-01-03 01:11:00,23.4,19.8,30.19,WNW,299,8.0,8.0,86,0.00,,,0.00,Wunderground v.1.15,2013-01-03 06:11:00,
2013-01-03 01:13:00,23.4,19.8,30.19,SSW,209,7.0,9.0,86,0.00,,,0.00,Wunderground v.1.15,2013-01-03 06:13:00,
2013-01-03 01:15:00,23.4,19.8,30.19,SSW,200,7.0,9.0,86,0.00,,,0.00,Wunderground v.1.15,2013-01-03 06:15:00,
2013-01-03 01:16:00,23.4,19.6,30.19,WSW,254,7.0,9.0,85,0.00,,,0.00,Wunderground v.1.15,2013-01-03 06:16:00,
2013-01-03 01:20:00,23.2,19.4,30.19,WSW,239,7.0,7.0,85,0.00,,,0.00,Wunderground v.1.15,2013-01-03 06:20:00,
2013-01-03 01:21:00,23.2,19.4,30.18,SSW,213,7.0,7.0,85,0.00,,,0.00,Wunderground v.1.15,2013-01-03 06:21:00,
2013-01-03 01:22:00,23.2,19.6,30.18,South,189,8.0,10.0,86,0.00,,,0.00,Wunderground v.1.15,2013-01-03 06:22:00,
2013-01-03 01:24:00,23.2,19.6,30.18,SSW,209,8.0,10.0,86,0.00,,,0.00,Wunderground v.1.15,2013-01-03 06:24:00,
2013-01-03 01:25:00,23.2,19.4,30.19,South,189,8.0,10.0,85,0.00,,,0.00,Wunderground v.1.15,2013-01-03 06:25:00,
2013-01-03 01:26:00,23.2,19.6,30.19,SW,218,8.0,10.0,86,0.00,,,0.00,Wunderground v.1.15,2013-01-03 06:26:00,
2013-01-03 01:29:00,23.2,19.4,30.19,SSW,213,8.0,11.0,85,0.00,,,0.00,Wunderground v.1.15,2013-01-03 06:29:00,
2013-01-03 01:30:00,23.2,19.6,30.19,SW,214,8.0,9.0,86,0.00,,,0.00,Wunderground v.1.15,2013-01-03 06:30:00,
2013-01-03 01:31:00,23.2,19.4,30.18,SSW,201,8.0,9.0,85,0.00,,,0.00,Wunderground v.1.15,2013-01-03 06:31:00,
2013-01-03 01:35:00,23.2,19.6,30.18,SSW,210,9.0,9.0,86,0.00,,,0.00,Wunderground v.1.15,2013-01-03 06:35:00,
2013-01-03 01:40:00,22.9,19.1,30.18,SSW,209,9.0,9.0,85,0.00,,,0.00,Wunderground v.1.15,2013-01-03 06:40:00,
2013-01-03 01:42:00,22.9,19.3,30.18,SW,225,9.0,9.0,86,0.00,,,0.00,Wunderground v.1.15,2013-01-03 06:42:00,
2013-01-03 01:47:00,22.8,19.2,30.18,SW,217,9.0,11.0,86,0.00,,,0.00,Wunderground v.1.15,2013-01-03 06:47:00,
2013-01-03 01:49:00,22.8,19.2,30.18,SSW,194,9.0,11.0,86,0.00,,,0.00,Wunderground v.1.15,2013-01-03 06:49:00,
2013-01-03 01:50:00,22.8,19.2,30.18,South,190,9.0,9.0,86,0.00,,,0.00,Wunderground v.1.15,2013-01-03 06:50:00,
2013-01-03 01:52:00,22.8,19.5,30.18,SW,220,8.0,11.0,87,0.00,,,0.00,Wunderground v.1.15,2013-01-03 06:52:00,
2013-01-03 01:54:00,22.7,19.1,30.18,SW,235,8.0,11.0,86,0.00,,,0.00,Wunderground v.1.15,2013-01-03 06:54:00,
2013-01-03 01:55:00,22.6,19.0,30.19,WSW,258,9.0,11.0,86,0.00,,,0.00,Wunderground v.1.15,2013-01-03 06:55:00,
2013-01-03 01:57:00,22.5,18.9,30.19,SW,225,9.0,11.0,86,0.00,,,0.00,Wunderground v.1.15,2013-01-03 06:57:00,
2013-01-03 01:59:00,22.5,18.9,30.19,WSW,246,9.0,11.0,86,0.00,,,0.00,Wunderground v.1.15,2013-01-03 06:59:00,
2013-01-03 02:01:00,22.4,18.8,30.19,SSW,213,9.0,10.0,86,0.00,,,0.00,Wunderground v.1.15,2013-01-03 07:01:00,
2013-01-03 02:02:00,22.4,18.8,30.19,WSW,249,9.0,10.0,86,0.00,,,0.00,Wunderground v.1.15,2013-01-03 07:02:00,
2013-01-03 02:04:00,22.3,18.7,30.19,SW,218,9.0,10.0,86,0.00,,,0.00,Wunderground v.1.15,2013-01-03 07:04:00,
2013-01-03 02:07:00,22.3,18.7,30.19,SW,218,8.0,12.0,86,0.00,,,0.00,Wunderground v.1.15,2013-01-03 07:07:00,
2013-01-03 02:10:00,22.2,18.7,30.19,SW,224,8.0,8.0,86,0.00,,,0.00,Wunderground v.1.15,2013-01-03 07:10:00,
2013-01-03 02:12:00,22.2,18.7,30.18,SSW,207,7.0,8.0,86,0.00,,,0.00,Wunderground v.1.15,2013-01-03 07:12:00,
2013-01-03 02:15:00,22.1,18.8,30.19,SSW,213,7.0,8.0,87,0.00,,,0.00,Wunderground v.1.15,2013-01-03 07:15:00,
2013-01-03 02:16:00,22.1,18.8,30.19,SW,216,8.0,8.0,87,0.00,,,0.00,Wunderground v.1.15,2013-01-03 07:16:00,
2013-01-03 02:18:00,22.0,18.7,30.19,SSW,213,8.0,8.0,87,0.00,,,0.00,Wunderground v.1.15,2013-01-03 07:18:00,
2013-01-03 02:21:00,21.9,18.6,30.19,WSW,256,7.0,7.0,87,0.00,,,0.00,Wunderground v.1.15,2013-01-03 07:21:00,
2013-01-03 02:23:00,21.9,18.4,30.19,SW,218,7.0,7.0,86,0.00,,,0.00,Wunderground v.1.15,2013-01-03 07:23:00,
2013-01-03 02:24:00,21.9,18.6,30.19,SSW,209,7.0,9.0,87,0.00,,,0.00,Wunderground v.1.15,2013-01-03 07:24:00,
2013-01-03 02:29:00,21.7,18.4,30.19,South,182,8.0,11.0,87,0.00,,,0.00,Wunderground v.1.15,2013-01-03 07:29:00,
2013-01-03 02:30:00,21.7,18.4,30.19,WSW,237,8.0,8.0,87,0.00,,,0.00,Wunderground v.1.15,2013-01-03 07:30:00,
2013-01-03 02:33:00,21.6,18.3,30.19,SSW,213,8.0,10.0,87,0.00,,,0.00,Wunderground v.1.15,2013-01-03 07:33:00,
2013-01-03 02:34:00,21.6,18.3,30.19,SW,220,8.0,10.0,87,0.00,,,0.00,Wunderground v.1.15,2013-01-03 07:34:00,
2013-01-03 02:39:00,21.5,18.2,30.19,SW,221,8.0,10.0,87,0.00,,,0.00,Wunderground v.1.15,2013-01-03 07:39:00,
2013-01-03 02:42:00,21.5,18.2,30.19,SW,221,8.0,8.0,87,0.00,,,0.00,Wunderground v.1.15,2013-01-03 07:42:00,
2013-01-03 02:43:00,21.5,18.2,30.19,SSW,207,7.0,8.0,87,0.00,,,0.00,Wunderground v.1.15,2013-01-03 07:43:00,
2013-01-03 02:46:00,21.5,18.2,30.19,SSW,201,7.0,8.0,87,0.00,,,0.00,Wunderground v.1.15,2013-01-03 07:46:00,
2013-01-03 02:47:00,21.4,18.1,30.19,SSW,201,7.0,8.0,87,0.00,,,0.00,Wunderground v.1.15,2013-01-03 07:47:00,
2013-01-03 02:49:00,21.4,18.1,30.19,South,179,6.0,8.0,87,0.00,,,0.00,Wunderground v.1.15,2013-01-03 07:49:00,
2013-01-03 02:51:00,21.3,18.0,30.19,South,190,6.0,6.0,87,0.00,,,0.00,Wunderground v.1.15,2013-01-03 07:51:00,
2013-01-03 02:52:00,21.3,18.0,30.19,SW,228,6.0,7.0,87,0.00,,,0.00,Wunderground v.1.15,2013-01-03 07:52:00,
2013-01-03 02:54:00,21.2,17.9,30.19,SW,220,6.0,7.0,87,0.00,,,0.00,Wunderground v.1.15,2013-01-03 07:54:00,
2013-01-03 02:56:00,21.1,17.8,30.19,SSW,205,6.0,7.0,87,0.00,,,0.00,Wunderground v.1.15,2013-01-03 07:56:00,
2013-01-03 02:59:00,21.1,17.8,30.19,SSW,210,6.0,7.0,87,0.00,,,0.00,Wunderground v.1.15,2013-01-03 07:59:00,
2013-01-03 03:01:00,21.0,17.7,30.19,SSW,192,6.0,8.0,87,0.00,,,0.00,Wunderground v.1.15,2013-01-03 08:01:00,
2013-01-03 03:03:00,21.1,17.8,30.19,SW,218,7.0,10.0,87,0.00,,,0.00,Wunderground v.1.15,2013-01-03 08:03:00,
2013-01-03 03:05:00,21.0,17.7,30.19,SSW,212,7.0,10.0,87,0.00,,,0.00,Wunderground v.1.15,2013-01-03 08:05:00,
2013-01-03 03:07:00,21.0,17.7,30.19,SSE,168,7.0,10.0,87,0.00,,,0.00,Wunderground v.1.15,2013-01-03 08:07:00,
2013-01-03 03:08:00,20.9,17.6,30.19,SE,145,7.0,10.0,87,0.00,,,0.00,Wunderground v.1.15,2013-01-03 08:08:00,
2013-01-03 03:11:00,20.8,17.5,30.19,SSW,201,6.0,8.0,87,0.00,,,0.00,Wunderground v.1.15,2013-01-03 08:11:00,
2013-01-03 03:12:00,20.7,17.4,30.19,SSW,201,6.0,8.0,87,0.00,,,0.00,Wunderground v.1.15,2013-01-03 08:12:00,
2013-01-03 03:15:00,20.6,17.3,30.19,SSW,201,6.0,8.0,87,0.00,,,0.00,Wunderground v.1.15,2013-01-03 08:15:00,
2013-01-03 03:16:00,20.6,17.1,30.19,SE,142,6.0,8.0,86,0.00,,,0.00,Wunderground v.1.15,2013-01-03 08:16:00,
2013-01-03 03:20:00,20.5,17.0,30.18,SSE,150,7.0,7.0,86,0.00,,,0.00,Wunderground v.1.15,2013-01-03 08:20:00,
2013-01-03 03:23:00,20.4,16.9,30.18,SSW,205,7.0,7.0,86,0.00,,,0.00,Wunderground v.1.15,2013-01-03 08:23:00,
2013-01-03 03:26:00,20.2,16.4,30.18,SE,128,6.0,7.0,85,0.00,,,0.00,Wunderground v.1.15,2013-01-03 08:26:00,
2013-01-03 03:27:00,20.3,16.8,30.18,SSW,202,6.0,7.0,86,0.00,,,0.00,Wunderground v.1.15,2013-01-03 08:27:00,
2013-01-03 03:28:00,20.2,16.7,30.18,South,169,6.0,7.0,86,0.00,,,0.00,Wunderground v.1.15,2013-01-03 08:28:00,
2013-01-03 03:33:00,20.1,16.0,30.18,SE,142,6.0,8.0,84,0.00,,,0.00,Wunderground v.1.15,2013-01-03 08:33:00,
2013-01-03 03:34:00,20.1,16.3,30.18,SW,216,6.0,8.0,85,0.00,,,0.00,Wunderground v.1.15,2013-01-03 08:34:00,
2013-01-03 03:36:00,20.1,16.3,30.18,SW,216,6.0,8.0,85,0.00,,,0.00,Wunderground v.1.15,2013-01-03 08:36:00,
2013-01-03 03:37:00,20.1,16.3,30.18,SSW,201,5.0,8.0,85,0.00,,,0.00,Wunderground v.1.15,2013-01-03 08:37:00,
2013-01-03 03:38:00,20.0,16.2,30.17,SSE,150,5.0,8.0,85,0.00,,,0.00,Wunderground v.1.15,2013-01-03 08:38:00,
2013-01-03 03:40:00,20.0,16.2,30.17,SE,135,5.0,5.0,85,0.00,,,0.00,Wunderground v.1.15,2013-01-03 08:40:00,
2013-01-03 03:41:00,19.9,16.1,30.17,SSW,192,5.0,5.0,85,0.00,,,0.00,Wunderground v.1.15,2013-01-03 08:41:00,
2013-01-03 03:45:00,19.8,16.3,30.17,SSW,197,5.0,8.0,86,0.00,,,0.00,Wunderground v.1.15,2013-01-03 08:45:00,
2013-01-03 03:47:00,19.8,16.3,30.17,SE,128,6.0,8.0,86,0.00,,,0.00,Wunderground v.1.15,2013-01-03 08:47:00,
2013-01-03 03:48:00,19.7,16.2,30.17,South,189,6.0,8.0,86,0.00,,,0.00,Wunderground v.1.15,2013-01-03 08:48:00,
2013-01-03 03:50:00,19.7,16.2,30.17,SSW,198,6.0,6.0,86,0.00,,,0.00,Wunderground v.1.15,2013-01-03 08:50:00,
2013-01-03 03:52:00,19.7,16.2,30.16,South,184,6.0,6.0,86,0.00,,,0.00,Wunderground v.1.15,2013-01-03 08:52:00,
2013-01-03 03:55:00,19.6,16.1,30.17,South,179,6.0,7.0,86,0.00,,,0.00,Wunderground v.1.15,2013-01-03 08:55:00,
2013-01-03 03:59:00,19.6,15.8,30.17,South,189,6.0,8.0,85,0.00,,,0.00,Wunderground v.1.15,2013-01-03 08:59:00,
2013-01-03 04:00:00,19.6,15.8,30.17,SSW,209,6.0,8.0,85,0.00,,,0.00,Wunderground v.1.15,2013-01-03 09:00:00,
2013-01-03 04:03:00,19.5,15.5,30.17,SW,220,6.0,8.0,84,0.00,,,0.00,Wunderground v.1.15,2013-01-03 09:03:00,
2013-01-03 04:08:00,19.5,15.5,30.16,SW,230,6.0,8.0,84,0.00,,,0.00,Wunderground v.1.15,2013-01-03 09:08:00,
2013-01-03 04:11:00,19.6,15.6,30.16,SE,144,6.0,8.0,84,0.00,,,0.00,Wunderground v.1.15,2013-01-03 09:11:00,
2013-01-03 04:14:00,19.6,15.3,30.16,SSW,213,7.0,9.0,83,0.00,,,0.00,Wunderground v.1.15,2013-01-03 09:14:00,
2013-01-03 04:15:00,19.6,15.0,30.16,SW,218,7.0,10.0,82,0.00,,,0.00,Wunderground v.1.15,2013-01-03 09:15:00,
2013-01-03 04:16:00,19.5,14.9,30.16,South,187,8.0,10.0,82,0.00,,,0.00,Wunderground v.1.15,2013-01-03 09:16:00,
2013-01-03 04:17:00,19.5,14.9,30.16,SSW,201,8.0,10.0,82,0.00,,,0.00,Wunderground v.1.15,2013-01-03 09:17:00,
2013-01-03 04:22:00,19.3,14.4,30.15,SSW,209,8.0,10.0,81,0.00,,,0.00,Wunderground v.1.15,2013-01-03 09:22:00,
2013-01-03 04:23:00,19.3,14.4,30.15,SW,216,8.0,10.0,81,0.00,,,0.00,Wunderground v.1.15,2013-01-03 09:23:00,
2013-01-03 04:25:00,19.3,14.1,30.15,SW,214,8.0,10.0,80,0.00,,,0.00,Wunderground v.1.15,2013-01-03 09:25:00,
2013-01-03 04:28:00,19.3,13.9,30.16,SW,217,8.0,11.0,79,0.00,,,0.00,Wunderground v.1.15,2013-01-03 09:28:00,
2013-01-03 04:30:00,19.3,13.9,30.15,SW,217,8.0,9.0,79,0.00,,,0.00,Wunderground v.1.15,2013-01-03 09:30:00,
2013-01-03 04:32:00,19.3,13.9,30.15,SW,217,8.0,9.0,79,0.00,,,0.00,Wunderground v.1.15,2013-01-03 09:32:00,
2013-01-03 04:33:00,19.3,13.6,30.16,SW,223,8.0,9.0,78,0.00,,,0.00,Wunderground v.1.15,2013-01-03 09:33:00,
2013-01-03 04:35:00,19.3,13.6,30.16,SW,225,8.0,9.0,78,0.00,,,0.00,Wunderground v.1.15,2013-01-03 09:35:00,
2013-01-03 04:37:00,19.3,13.6,30.15,SW,218,7.0,11.0,78,0.00,,,0.00,Wunderground v.1.15,2013-01-03 09:37:00,
2013-01-03 04:40:00,19.3,13.3,30.15,SSW,209,8.0,8.0,77,0.00,,,0.00,Wunderground v.1.15,2013-01-03 09:40:00,
2013-01-03 04:42:00,19.2,12.9,30.15,SSW,213,8.0,9.0,76,0.00,,,0.00,Wunderground v.1.15,2013-01-03 09:42:00,
2013-01-03 04:44:00,19.2,12.9,30.15,SW,223,8.0,11.0,76,0.00,,,0.00,Wunderground v.1.15,2013-01-03 09:44:00,
2013-01-03 04:46:00,19.1,12.5,30.15,SW,218,9.0,12.0,75,0.00,,,0.00,Wunderground v.1.15,2013-01-03 09:46:00,
2013-01-03 04:48:00,19.1,12.5,30.15,SW,223,9.0,12.0,75,0.00,,,0.00,Wunderground v.1.15,2013-01-03 09:48:00,
2013-01-03 04:51:00,19.0,12.1,30.15,SSW,212,9.0,11.0,74,0.00,,,0.00,Wunderground v.1.15,2013-01-03 09:51:00,
2013-01-03 04:53:00,19.0,12.1,30.15,SW,219,9.0,12.0,74,0.00,,,0.00,Wunderground v.1.15,2013-01-03 09:53:00,
2013-01-03 04:54:00,19.0,12.4,30.15,SW,216,9.0,12.0,75,0.00,,,0.00,Wunderground v.1.15,2013-01-03 09:54:00,
2013-01-03 04:55:00,19.0,12.1,30.15,SW,230,9.0,12.0,74,0.00,,,0.00,Wunderground v.1.15,2013-01-03 09:55:00,
2013-01-03 04:58:00,18.8,11.3,30.15,SW,220,9.0,12.0,72,0.00,,,0.00,Wunderground v.1.15,2013-01-03 09:58:00,
2013-01-03 05:00:00,18.8,11.3,30.15,SW,223,9.0,11.0,72,0.00,,,0.00,Wunderground v.1.15,2013-01-03 10:00:00,
2013-01-03 05:01:00,18.8,11.6,30.15,South,187,9.0,11.0,73,0.00,,,0.00,Wunderground v.1.15,2013-01-03 10:01:00,
2013-01-03 05:03:00,18.8,11.3,30.14,SSW,206,9.0,11.0,72,0.00,,,0.00,Wunderground v.1.15,2013-01-03 10:03:00,
2013-01-03 05:06:00,18.7,11.2,30.14,SW,220,9.0,11.0,72,0.00,,,0.00,Wunderground v.1.15,2013-01-03 10:06:00,
2013-01-03 05:08:00,18.6,10.8,30.14,SW,218,9.0,11.0,71,0.00,,,0.00,Wunderground v.1.15,2013-01-03 10:08:00,
2013-01-03 05:12:00,18.6,10.4,30.14,SW,219,8.0,11.0,70,0.00,,,0.00,Wunderground v.1.15,2013-01-03 10:12:00,
2013-01-03 05:13:00,18.6,10.8,30.14,WSW,254,8.0,11.0,71,0.00,,,0.00,Wunderground v.1.15,2013-01-03 10:13:00,
2013-01-03 05:14:00,18.6,11.1,30.14,SSW,199,8.0,11.0,72,0.00,,,0.00,Wunderground v.1.15,2013-01-03 10:14:00,
2013-01-03 05:17:00,18.6,11.1,30.14,SW,236,8.0,11.0,72,0.00,,,0.00,Wunderground v.1.15,2013-01-03 10:17:00,
2013-01-03 05:18:00,18.6,10.8,30.14,SSW,209,8.0,11.0,71,0.00,,,0.00,Wunderground v.1.15,2013-01-03 10:18:00,
2013-01-03 05:19:00,18.6,10.4,30.14,SW,216,8.0,9.0,70,0.00,,,0.00,Wunderground v.1.15,2013-01-03 10:19:00,
2013-01-03 05:23:00,18.7,11.2,30.14,WSW,252,8.0,10.0,72,0.00,,,0.00,Wunderground v.1.15,2013-01-03 10:23:00,
2013-01-03 05:24:00,18.6,10.4,30.14,West,260,8.0,11.0,70,0.00,,,0.00,Wunderground v.1.15,2013-01-03 10:24:00,
2013-01-03 05:26:00,18.6,10.4,30.14,SW,230,8.0,11.0,70,0.00,,,0.00,Wunderground v.1.15,2013-01-03 10:26:00,
2013-01-03 05:28:00,18.6,10.4,30.14,West,260,8.0,11.0,70,0.00,,,0.00,Wunderground v.1.15,2013-01-03 10:28:00,
2013-01-03 05:30:00,18.5,10.3,30.14,WSW,258,8.0,11.0,70,0.00,,,0.00,Wunderground v.1.15,2013-01-03 10:30:00,
2013-01-03 05:31:00,18.5,10.0,30.14,WSW,246,8.0,11.0,69,0.00,,,0.00,Wunderground v.1.15,2013-01-03 10:31:00,
2013-01-03 05:34:00,18.5,10.7,30.14,West,270,8.0,11.0,71,0.00,,,0.00,Wunderground v.1.15,2013-01-03 10:34:00,
2013-01-03 05:35:00,18.5,10.3,30.14,WSW,244,8.0,11.0,70,0.00,,,0.00,Wunderground v.1.15,2013-01-03 10:35:00,
2013-01-03 05:40:00,18.5,10.0,30.14,WSW,254,8.0,8.0,69,0.00,,,0.00,Wunderground v.1.15,2013-01-03 10:40:00,
2013-01-03 05:42:00,18.4,9.9,30.14,WSW,248,8.0,11.0,69,0.00,,,0.00,Wunderground v.1.15,2013-01-03 10:42:00,
2013-01-03 05:43:00,18.3,9.8,30.14,WSW,252,8.0,11.0,69,0.00,,,0.00,Wunderground v.1.15,2013-01-03 10:43:00,
2013-01-03 05:47:00,18.3,9.8,30.14,SW,220,8.0,11.0,69,0.00,,,0.00,Wunderground v.1.15,2013-01-03 10:47:00,
2013-01-03 05:48:00,18.3,9.8,30.14,SW,218,8.0,11.0,69,0.00,,,0.00,Wunderground v.1.15,2013-01-03 10:48:00,
2013-01-03 05:51:00,18.3,9.8,30.14,SW,214,8.0,8.0,69,0.00,,,0.00,Wunderground v.1.15,2013-01-03 10:51:00,
2013-01-03 05:54:00,18.3,9.8,30.13,WSW,243,8.0,8.0,69,0.00,,,0.00,Wunderground v.1.15,2013-01-03 10:54:00,
2013-01-03 05:57:00,18.2,9.7,30.13,WSW,244,8.0,8.0,69,0.00,,,0.00,Wunderground v.1.15,2013-01-03 10:57:00,
2013-01-03 05:59:00,18.2,9.4,30.13,WSW,258,7.0,12.0,68,0.00,,,0.00,Wunderground v.1.15,2013-01-03 10:59:00,
2013-01-03 06:00:00,18.2,9.7,30.13,SW,232,7.0,7.0,69,0.00,,,0.00,Wunderground v.1.15,2013-01-03 11:00:00,
2013-01-03 06:03:00,18.2,9.4,30.13,SW,230,7.0,7.0,68,0.00,,,0.00,Wunderground v.1.15,2013-01-03 11:03:00,
2013-01-03 06:05:00,18.3,10.1,30.14,WSW,257,7.0,9.0,70,0.00,,,0.00,Wunderground v.1.15,2013-01-03 11:05:00,
2013-01-03 06:08:00,18.3,9.8,30.13,West,260,7.0,10.0,69,0.00,,,0.00,Wunderground v.1.15,2013-01-03 11:08:00,
2013-01-03 06:09:00,18.3,9.8,30.13,SW,223,7.0,7.0,69,0.00,,,0.00,Wunderground v.1.15,2013-01-03 11:09:00,
2013-01-03 06:11:00,18.3,9.8,30.13,WSW,248,7.0,7.0,69,0.00,,,0.00,Wunderground v.1.15,2013-01-03 11:11:00,
2013-01-03 06:12:00,18.3,9.8,30.13,West,277,7.0,7.0,69,0.00,,,0.00,Wunderground v.1.15,2013-01-03 11:12:00,
2013-01-03 06:14:00,18.3,10.1,30.13,WSW,256,7.0,11.0,70,0.00,,,0.00,Wunderground v.1.15,2013-01-03 11:14:00,
2013-01-03 06:16:00,18.3,10.1,30.13,West,261,8.0,11.0,70,0.00,,,0.00,Wunderground v.1.15,2013-01-03 11:16:00,
2013-01-03 06:17:00,18.3,9.8,30.13,SSW,207,7.0,11.0,69,0.00,,,0.00,Wunderground v.1.15,2013-01-03 11:17:00,
2013-01-03 06:19:00,18.3,9.8,30.14,SW,230,7.0,7.0,69,0.00,,,0.00,Wunderground v.1.15,2013-01-03 11:19:00,
2013-01-03 06:21:00,18.4,10.2,30.13,SSW,209,7.0,7.0,70,0.00,,,0.00,Wunderground v.1.15,2013-01-03 11:21:00,
2013-01-03 06:22:00,18.4,10.2,30.13,SW,217,7.0,7.0,70,0.00,,,0.00,Wunderground v.1.15,2013-01-03 11:22:00,
2013-01-03 06:23:00,18.4,10.2,30.13,WSW,241,7.0,10.0,70,0.00,,,0.00,Wunderground v.1.15,2013-01-03 11:23:00,
2013-01-03 06:27:00,18.4,10.2,30.13,WSW,244,7.0,10.0,70,0.00,,,0.00,Wunderground v.1.15,2013-01-03 11:27:00,
2013-01-03 06:30:00,18.4,9.9,30.13,WSW,241,7.0,7.0,69,0.00,,,0.00,Wunderground v.1.15,2013-01-03 11:30:00,
2013-01-03 06:35:00,18.4,10.2,30.13,WSW,239,7.0,8.0,70,0.00,,,0.00,Wunderground v.1.15,2013-01-03 11:35:00,
2013-01-03 06:38:00,18.3,9.8,30.13,WSW,241,7.0,10.0,69,0.00,,,0.00,Wunderground v.1.15,2013-01-03 11:38:00,
2013-01-03 06:39:00,18.3,9.8,30.13,SW,221,7.0,10.0,69,0.00,,,0.00,Wunderground v.1.15,2013-01-03 11:39:00,
2013-01-03 06:42:00,18.3,10.1,30.13,West,270,7.0,8.0,70,0.00,,,0.00,Wunderground v.1.15,2013-01-03 11:42:00,
2013-01-03 06:45:00,18.4,10.2,30.12,SSW,206,7.0,8.0,70,0.00,,,0.00,Wunderground v.1.15,2013-01-03 11:45:00,
2013-01-03 06:46:00,18.4,10.2,30.13,SW,223,7.0,8.0,70,0.00,,,0.00,Wunderground v.1.15,2013-01-03 11:46:00,
2013-01-03 06:47:00,18.3,10.1,30.12,SW,218,7.0,8.0,70,0.00,,,0.00,Wunderground v.1.15,2013-01-03 11:47:00,
2013-01-03 06:49:00,18.3,10.1,30.12,WSW,243,7.0,8.0,70,0.00,,,0.00,Wunderground v.1.15,2013-01-03 11:49:00,
2013-01-03 06:51:00,18.3,10.1,30.12,WSW,244,8.0,9.0,70,0.00,,,0.00,Wunderground v.1.15,2013-01-03 11:51:00,
2013-01-03 06:52:00,18.3,10.5,30.12,SW,214,8.0,9.0,71,0.00,,,0.00,Wunderground v.1.15,2013-01-03 11:52:00,
2013-01-03 06:54:00,18.3,10.1,30.12,WSW,237,8.0,9.0,70,0.00,,,0.00,Wunderground v.1.15,2013-01-03 11:54:00,
2013-01-03 06:57:00,18.3,9.8,30.12,WSW,241,8.0,10.0,69,0.00,,,0.00,Wunderground v.1.15,2013-01-03 11:57:00,
2013-01-03 06:59:00,18.2,9.7,30.12,SW,230,8.0,10.0,69,0.00,,,0.00,Wunderground v.1.15,2013-01-03 11:59:00,
2013-01-03 07:00:00,18.2,9.7,30.12,SW,234,8.0,8.0,69,0.00,,,0.00,Wunderground v.1.15,2013-01-03 12:00:00,
2013-01-03 07:04:00,18.2,9.7,30.12,SW,225,8.0,13.0,69,0.00,,,0.00,Wunderground v.1.15,2013-01-03 12:04:00,
2013-01-03 07:05:00,18.2,10.1,30.12,West,262,8.0,13.0,70,0.00,,,0.00,Wunderground v.1.15,2013-01-03 12:05:00,
2013-01-03 07:06:00,18.2,10.1,30.12,SW,223,8.0,13.0,70,0.00,,,0.00,Wunderground v.1.15,2013-01-03 12:06:00,
2013-01-03 07:10:00,18.3,10.5,30.12,SW,218,8.0,11.0,71,0.00,,,0.00,Wunderground v.1.15,2013-01-03 12:10:00,
2013-01-03 07:12:00,18.3,10.1,30.11,WSW,243,9.0,11.0,70,0.00,,,0.00,Wunderground v.1.15,2013-01-03 12:12:00,
2013-01-03 07:13:00,18.2,9.7,30.11,WSW,244,8.0,11.0,69,0.00,,,0.00,Wunderground v.1.15,2013-01-03 12:13:00,
2013-01-03 07:17:00,18.3,10.5,30.11,SW,217,9.0,11.0,71,0.00,,,0.00,Wunderground v.1.15,2013-01-03 12:17:00,
2013-01-03 07:18:00,18.3,10.5,30.11,WSW,244,9.0,11.0,71,0.00,,,0.00,Wunderground v.1.15,2013-01-03 12:18:00,
2013-01-03 07:21:00,18.2,10.1,30.11,SW,219,8.0,9.0,70,0.00,,,0.00,Wunderground v.1.15,2013-01-03 12:21:00,
2013-01-03 07:22:00,18.2,10.1,30.11,SW,220,9.0,9.0,70,0.00,,,0.00,Wunderground v.1.15,2013-01-03 12:22:00,
2013-01-03 07:26:00,18.3,10.5,30.12,SSW,209,9.0,11.0,71,0.00,,,0.00,Wunderground v.1.15,2013-01-03 12:26:00,
2013-01-03 07:27:00,18.2,10.1,30.12,SW,232,9.0,11.0,70,0.00,,,0.00,Wunderground v.1.15,2013-01-03 12:27:00,
2013-01-03 07:29:00,18.2,10.4,30.12,SW,221,9.0,11.0,71,0.00,,,0.00,Wunderground v.1.15,2013-01-03 12:29:00,
2013-01-03 07:30:00,18.2,10.4,30.12,WSW,249,9.0,11.0,71,0.00,,,0.00,Wunderground v.1.15,2013-01-03 12:30:00,
2013-01-03 07:35:00,18.3,10.8,30.12,SW,218,8.0,11.0,72,0.00,,,0.00,Wunderground v.1.15,2013-01-03 12:35:00,
2013-01-03 07:36:00,18.3,10.5,30.12,SW,218,8.0,11.0,71,0.00,,,0.00,Wunderground v.1.15,2013-01-03 12:36:00,
2013-01-03 07:37:00,18.2,10.4,30.11,SW,221,8.0,11.0,71,0.00,,,0.00,Wunderground v.1.15,2013-01-03 12:37:00,
2013-01-03 07:40:00,18.2,10.7,30.12,SW,219,9.0,9.0,72,0.00,,,0.00,Wunderground v.1.15,2013-01-03 12:40:00,
2013-01-03 07:41:00,18.3,11.1,30.12,West,260,9.0,11.0,73,0.00,,,0.00,Wunderground v.1.15,2013-01-03 12:41:00,
2013-01-03 07:45:00,18.3,10.8,30.12,SSW,207,9.0,11.0,72,0.00,,,0.00,Wunderground v.1.15,2013-01-03 12:45:00,
2013-01-03 07:47:00,18.4,11.2,30.12,SW,216,9.0,11.0,73,0.00,,,0.00,Wunderground v.1.15,2013-01-03 12:47:00,
2013-01-03 07:48:00,18.4,10.9,30.12,WSW,237,9.0,11.0,72,0.00,,,0.00,Wunderground v.1.15,2013-01-03 12:48:00,
2013-01-03 07:51:00,18.3,10.8,30.12,SW,225,8.0,8.0,72,0.00,,,0.00,Wunderground v.1.15,2013-01-03 12:51:00,
2013-01-03 07:53:00,18.3,10.5,30.12,SW,216,8.0,10.0,71,0.00,,,0.00,Wunderground v.1.15,2013-01-03 12:53:00,
2013-01-03 07:54:00,18.3,10.5,30.12,SW,216,8.0,11.0,71,0.00,,,0.00,Wunderground v.1.15,2013-01-03 12:54:00,
2013-01-03 07:57:00,18.3,10.8,30.12,SW,216,8.0,11.0,72,0.00,,,0.00,Wunderground v.1.15,2013-01-03 12:57:00,
2013-01-03 07:59:00,18.2,10.4,30.12,SW,219,8.0,11.0,71,0.00,,,0.00,Wunderground v.1.15,2013-01-03 12:59:00,
2013-01-03 08:01:00,18.3,10.5,30.12,SSW,213,9.0,10.0,71,0.00,,,0.00,Wunderground v.1.15,2013-01-03 13:01:00,
2013-01-03 08:03:00,18.3,11.1,30.12,SW,225,9.0,10.0,73,0.00,,,0.00,Wunderground v.1.15,2013-01-03 13:03:00,
2013-01-03 08:06:00,18.2,10.4,30.11,South,188,9.0,12.0,71,0.00,,,0.00,Wunderground v.1.15,2013-01-03 13:06:00,
2013-01-03 08:07:00,18.3,10.5,30.12,SW,218,9.0,12.0,71,0.00,,,0.00,Wunderground v.1.15,2013-01-03 13:07:00,
2013-01-03 08:08:00,18.3,10.8,30.12,SW,214,9.0,12.0,72,0.00,,,0.00,Wunderground v.1.15,2013-01-03 13:08:00,
2013-01-03 08:13:00,18.3,10.8,30.12,SW,218,8.0,10.0,72,0.00,,,0.00,Wunderground v.1.15,2013-01-03 13:13:00,
2013-01-03 08:14:00,18.4,11.5,30.11,SW,228,8.0,10.0,74,0.00,,,0.00,Wunderground v.1.15,2013-01-03 13:14:00,
2013-01-03 08:18:00,18.3,10.5,30.11,SSW,209,8.0,10.0,71,0.00,,,0.00,Wunderground v.1.15,2013-01-03 13:18:00,
2013-01-03 08:21:00,18.4,10.9,30.11,SSW,211,8.0,11.0,72,0.00,,,0.00,Wunderground v.1.15,2013-01-03 13:21:00,
2013-01-03 08:22:00,18.3,10.8,30.11,WSW,238,8.0,11.0,72,0.00,,,0.00,Wunderground v.1.15,2013-01-03 13:22:00,
2013-01-03 08:25:00,18.3,10.8,30.11,SW,230,8.0,11.0,72,0.00,,,0.00,Wunderground v.1.15,2013-01-03 13:25:00,
2013-01-03 08:26:00,18.3,10.8,30.11,SW,219,8.0,11.0,72,0.00,,,0.00,Wunderground v.1.15,2013-01-03 13:26:00,
2013-01-03 08:30:00,18.4,10.9,30.11,West,262,8.0,8.0,72,0.00,,,0.00,Wunderground v.1.15,2013-01-03 13:30:00,
2013-01-03 08:34:00,18.5,11.6,30.11,SSW,213,7.0,10.0,74,0.00,,,0.00,Wunderground v.1.15,2013-01-03 13:34:00,
2013-01-03 08:35:00,18.5,11.6,30.11,SW,216,7.0,10.0,74,0.00,,,0.00,Wunderground v.1.15,2013-01-03 13:35:00,
2013-01-03 08:36:00,18.5,11.6,30.11,SSW,210,7.0,10.0,74,0.00,,,0.00,Wunderground v.1.15,2013-01-03 13:36:00,
2013-01-03 08:41:00,18.5,11.3,30.11,SSW,203,7.0,8.0,73,0.00,,,0.00,Wunderground v.1.15,2013-01-03 13:41:00,
2013-01-03 08:42:00,18.4,11.2,30.11,SW,223,8.0,9.0,73,0.00,,,0.00,Wunderground v.1.15,2013-01-03 13:42:00,
2013-01-03 08:44:00,18.4,11.2,30.12,SSW,194,8.0,9.0,73,0.00,,,0.00,Wunderground v.1.15,2013-01-03 13:44:00,
2013-01-03 08:46:00,18.4,11.2,30.12,SW,218,8.0,10.0,73,0.00,,,0.00,Wunderground v.1.15,2013-01-03 13:46:00,
2013-01-03 08:49:00,18.3,11.1,30.11,SSW,210,8.0,11.0,73,0.00,,,0.00,Wunderground v.1.15,2013-01-03 13:49:00,
2013-01-03 08:50:00,18.3,11.1,30.12,SW,230,9.0,9.0,73,0.00,,,0.00,Wunderground v.1.15,2013-01-03 13:50:00,
2013-01-03 08:54:00,18.4,11.5,30.12,SW,227,9.0,10.0,74,0.00,,,0.00,Wunderground v.1.15,2013-01-03 13:54:00,
2013-01-03 08:57:00,18.5,11.9,30.12,West,260,8.0,10.0,75,0.00,,,0.00,Wunderground v.1.15,2013-01-03 13:57:00,
2013-01-03 08:59:00,18.5,11.6,30.12,West,265,8.0,10.0,74,0.00,,,0.00,Wunderground v.1.15,2013-01-03 13:59:00,
2013-01-03 09:02:00,18.6,12.0,30.12,WSW,237,7.0,8.0,75,0.00,,,0.00,Wunderground v.1.15,2013-01-03 14:02:00,
2013-01-03 09:03:00,18.7,12.1,30.12,SSW,213,7.0,10.0,75,0.00,,,0.00,Wunderground v.1.15,2013-01-03 14:03:00,
2013-01-03 09:06:00,18.8,12.2,30.12,WSW,246,7.0,12.0,75,0.00,,,0.00,Wunderground v.1.15,2013-01-03 14:06:00,
2013-01-03 09:07:00,18.8,11.9,30.12,SSW,204,7.0,12.0,74,0.00,,,0.00,Wunderground v.1.15,2013-01-03 14:07:00,
2013-01-03 09:09:00,18.8,11.9,30.13,WSW,257,7.0,12.0,74,0.00,,,0.00,Wunderground v.1.15,2013-01-03 14:09:00,
2013-01-03 09:10:00,18.9,12.3,30.13,SW,224,7.0,8.0,75,0.00,,,0.00,Wunderground v.1.15,2013-01-03 14:10:00,
2013-01-03 09:14:00,19.0,12.4,30.13,SW,228,7.0,8.0,75,0.00,,,0.00,Wunderground v.1.15,2013-01-03 14:14:00,
2013-01-03 09:15:00,19.0,12.4,30.13,SW,228,7.0,8.0,75,0.00,,,0.00,Wunderground v.1.15,2013-01-03 14:15:00,
2013-01-03 09:16:00,19.0,12.1,30.13,SW,223,7.0,8.0,74,0.00,,,0.00,Wunderground v.1.15,2013-01-03 14:16:00,
2013-01-03 09:20:00,19.2,12.6,30.13,SSW,210,7.0,10.0,75,0.00,,,0.00,Wunderground v.1.15,2013-01-03 14:20:00,
2013-01-03 09:22:00,19.2,12.6,30.13,SSW,213,7.0,10.0,75,0.00,,,0.00,Wunderground v.1.15,2013-01-03 14:22:00,
2013-01-03 09:24:00,19.2,12.6,30.13,SW,235,7.0,10.0,75,0.00,,,0.00,Wunderground v.1.15,2013-01-03 14:24:00,
2013-01-03 09:28:00,19.3,12.7,30.13,WSW,243,7.0,10.0,75,0.00,,,0.00,Wunderground v.1.15,2013-01-03 14:28:00,
2013-01-03 09:29:00,19.4,12.8,30.13,West,280,7.0,7.0,75,0.00,,,0.00,Wunderground v.1.15,2013-01-03 14:29:00,
2013-01-03 09:31:00,19.4,12.8,30.13,WSW,244,7.0,7.0,75,0.00,,,0.00,Wunderground v.1.15,2013-01-03 14:31:00,
2013-01-03 09:34:00,19.5,12.9,30.13,WSW,243,8.0,10.0,75,0.00,,,0.00,Wunderground v.1.15,2013-01-03 14:34:00,
2013-01-03 09:35:00,19.6,13.0,30.13,WSW,246,8.0,13.0,75,0.00,,,0.00,Wunderground v.1.15,2013-01-03 14:35:00,
2013-01-03 09:39:00,19.6,13.3,30.13,WSW,256,8.0,13.0,76,0.00,,,0.00,Wunderground v.1.15,2013-01-03 14:39:00,
2013-01-03 09:42:00,19.6,13.0,30.13,WSW,246,8.0,11.0,75,0.00,,,0.00,Wunderground v.1.15,2013-01-03 14:42:00,
2013-01-03 09:43:00,19.6,13.0,30.13,WSW,255,9.0,11.0,75,0.00,,,0.00,Wunderground v.1.15,2013-01-03 14:43:00,
2013-01-03 09:44:00,19.7,13.1,30.13,WNW,291,9.0,11.0,75,0.00,,,0.00,Wunderground v.1.15,2013-01-03 14:44:00,
2013-01-03 09:48:00,19.7,13.1,30.13,WNW,286,9.0,11.0,75,0.00,,,0.00,Wunderground v.1.15,2013-01-03 14:48:00,
2013-01-03 09:51:00,19.7,13.1,30.13,WSW,251,9.0,9.0,75,0.00,,,0.00,Wunderground v.1.15,2013-01-03 14:51:00,
2013-01-03 09:52:00,19.8,13.5,30.13,WSW,255,8.0,12.0,76,0.00,,,0.00,Wunderground v.1.15,2013-01-03 14:52:00,
2013-01-03 09:54:00,19.9,13.6,30.13,West,261,8.0,12.0,76,0.00,,,0.00,Wunderground v.1.15,2013-01-03 14:54:00,
2013-01-03 09:55:00,19.9,13.6,30.13,West,270,8.0,12.0,76,0.00,,,0.00,Wunderground v.1.15,2013-01-03 14:55:00,
2013-01-03 09:57:00,20.0,13.6,30.13,WSW,255,8.0,12.0,76,0.00,,,0.00,Wunderground v.1.15,2013-01-03 14:57:00,
2013-01-03 09:59:00,20.0,13.6,30.13,West,263,8.0,12.0,76,0.00,,,0.00,Wunderground v.1.15,2013-01-03 14:59:00,
2013-01-03 10:00:00,20.0,13.6,30.13,West,270,8.0,8.0,76,0.00,,,0.00,Wunderground v.1.15,2013-01-03 15:00:00,
2013-01-03 10:03:00,20.1,13.7,30.13,West,265,8.0,12.0,76,0.00,,,0.00,Wunderground v.1.15,2013-01-03 15:03:00,
2013-01-03 10:04:00,20.1,13.7,30.13,West,275,8.0,12.0,76,0.00,,,0.00,Wunderground v.1.15,2013-01-03 15:04:00,
2013-01-03 10:07:00,20.2,14.1,30.13,West,271,8.0,12.0,77,0.00,,,0.00,Wunderground v.1.15,2013-01-03 15:07:00,
2013-01-03 10:08:00,20.2,14.1,30.13,West,280,9.0,12.0,77,0.00,,,0.00,Wunderground v.1.15,2013-01-03 15:08:00,
2013-01-03 10:09:00,20.2,14.1,30.13,WSW,249,9.0,9.0,77,0.00,,,0.00,Wunderground v.1.15,2013-01-03 15:09:00,
2013-01-03 10:12:00,20.4,14.3,30.13,WSW,253,9.0,12.0,77,0.00,,,0.00,Wunderground v.1.15,2013-01-03 15:12:00,
2013-01-03 10:14:00,20.4,14.3,30.13,WSW,246,9.0,12.0,77,0.00,,,0.00,Wunderground v.1.15,2013-01-03 15:14:00,
2013-01-03 10:17:00,20.5,14.7,30.13,West,261,9.0,12.0,78,0.00,,,0.00,Wunderground v.1.15,2013-01-03 15:17:00,
2013-01-03 10:18:00,20.6,14.8,30.13,West,270,9.0,12.0,78,0.00,,,0.00,Wunderground v.1.15,2013-01-03 15:18:00,
2013-01-03 10:20:00,20.7,15.2,30.13,West,273,9.0,10.0,79,0.00,,,0.00,Wunderground v.1.15,2013-01-03 15:20:00,
2013-01-03 10:21:00,20.8,15.0,30.13,WSW,258,9.0,11.0,78,0.00,,,0.00,Wunderground v.1.15,2013-01-03 15:21:00,
2013-01-03 10:22:00,20.8,14.7,30.13,West,259,9.0,11.0,77,0.00,,,0.00,Wunderground v.1.15,2013-01-03 15:22:00,
2013-01-03 10:25:00,20.8,15.0,30.12,West,262,8.0,11.0,78,0.00,,,0.00,Wunderground v.1.15,2013-01-03 15:25:00,
2013-01-03 10:26:00,20.8,14.7,30.12,West,261,9.0,11.0,77,0.00,,,0.00,Wunderground v.1.15,2013-01-03 15:26:00,
2013-01-03 10:28:00,21.0,14.9,30.13,WSW,257,9.0,11.0,77,0.00,,,0.00,Wunderground v.1.15,2013-01-03 15:28:00,
2013-01-03 10:30:00,21.0,14.9,30.13,WSW,243,9.0,9.0,77,0.00,,,0.00,Wunderground v.1.15,2013-01-03 15:30:00,
2013-01-03 10:32:00,21.1,15.3,30.13,WSW,245,9.0,12.0,78,0.00,,,0.00,Wunderground v.1.15,2013-01-03 15:32:00,
2013-01-03 10:35:00,21.2,15.4,30.13,SW,235,9.0,13.0,78,0.00,,,0.00,Wunderground v.1.15,2013-01-03 15:35:00,
2013-01-03 10:37:00,21.3,15.5,30.13,West,263,9.0,13.0,78,0.00,,,0.00,Wunderground v.1.15,2013-01-03 15:37:00,
2013-01-03 10:38:00,21.3,15.5,30.13,WSW,246,9.0,13.0,78,0.00,,,0.00,Wunderground v.1.15,2013-01-03 15:38:00,
2013-01-03 10:41:00,21.3,15.5,30.13,WSW,238,10.0,11.0,78,0.00,,,0.00,Wunderground v.1.15,2013-01-03 15:41:00,
2013-01-03 10:42:00,21.4,15.6,30.13,West,269,10.0,12.0,78,0.00,,,0.00,Wunderground v.1.15,2013-01-03 15:42:00,
2013-01-03 10:43:00,21.4,15.6,30.13,WSW,253,10.0,12.0,78,0.00,,,0.00,Wunderground v.1.15,2013-01-03 15:43:00,
2013-01-03 10:45:00,21.4,15.6,30.13,West,280,10.0,12.0,78,0.00,,,0.00,Wunderground v.1.15,2013-01-03 15:45:00,
2013-01-03 10:47:00,21.5,15.7,30.13,West,262,11.0,13.0,78,0.00,,,0.00,Wunderground v.1.15,2013-01-03 15:47:00,
2013-01-03 10:48:00,21.5,15.7,30.13,West,265,11.0,13.0,78,0.00,,,0.00,Wunderground v.1.15,2013-01-03 15:48:00,
2013-01-03 10:50:00,21.5,15.7,30.13,West,271,11.0,12.0,78,0.00,,,0.00,Wunderground v.1.15,2013-01-03 15:50:00,
2013-01-03 10:54:00,21.5,16.0,30.13,West,268,10.0,12.0,79,0.00,,,0.00,Wunderground v.1.15,2013-01-03 15:54:00,
2013-01-03 10:55:00,21.6,16.1,30.13,West,273,10.0,12.0,79,0.00,,,0.00,Wunderground v.1.15,2013-01-03 15:55:00,
2013-01-03 10:57:00,21.6,16.1,30.13,West,261,10.0,12.0,79,0.00,,,0.00,Wunderground v.1.15,2013-01-03 15:57:00,
2013-01-03 11:00:00,21.7,16.2,30.13,South,183,10.0,10.0,79,0.00,,,0.00,Wunderground v.1.15,2013-01-03 16:00:00,
2013-01-03 11:02:00,21.8,16.3,30.13,West,263,10.0,13.0,79,0.00,,,0.00,Wunderground v.1.15,2013-01-03 16:02:00,
2013-01-03 11:04:00,21.8,16.3,30.13,West,274,10.0,13.0,79,0.00,,,0.00,Wunderground v.1.15,2013-01-03 16:04:00,
2013-01-03 11:05:00,21.8,16.3,30.13,West,271,10.0,13.0,79,0.00,,,0.00,Wunderground v.1.15,2013-01-03 16:05:00,
2013-01-03 11:07:00,21.9,16.4,30.13,WSW,258,10.0,13.0,79,0.00,,,0.00,Wunderground v.1.15,2013-01-03 16:07:00,
2013-01-03 11:10:00,21.9,16.4,30.13,SW,218,11.0,11.0,79,0.00,,,0.00,Wunderground v.1.15,2013-01-03 16:10:00,
2013-01-03 11:12:00,21.9,16.4,30.13,West,261,10.0,11.0,79,0.00,,,0.00,Wunderground v.1.15,2013-01-03 16:12:00,
2013-01-03 11:13:00,21.9,16.4,30.13,West,266,10.0,11.0,79,0.00,,,0.00,Wunderground v.1.15,2013-01-03 16:13:00,
2013-01-03 11:15:00,21.8,16.3,30.13,WSW,246,10.0,13.0,79,0.00,,,0.00,Wunderground v.1.15,2013-01-03 16:15:00,
2013-01-03 11:17:00,21.8,16.0,30.13,WSW,252,10.0,13.0,78,0.00,,,0.00,Wunderground v.1.15,2013-01-03 16:17:00,
2013-01-03 11:18:00,21.9,16.4,30.12,WSW,251,10.0,13.0,79,0.00,,,0.00,Wunderground v.1.15,2013-01-03 16:18:00,
2013-01-03 14:05:00,26.4,22.2,30.08,West,271,10.0,11.0,84,0.00,,,0.00,Wunderground v.1.15,2013-01-03 19:05:00,
2013-01-03 14:08:00,26.5,22.3,30.08,West,273,10.0,11.0,84,0.00,,,0.00,Wunderground v.1.15,2013-01-03 19:08:00,
2013-01-03 14:11:00,26.6,22.7,30.08,WNW,289,9.0,11.0,85,0.00,,,0.00,Wunderground v.1.15,2013-01-03 19:11:00,
2013-01-03 14:12:00,26.6,22.7,30.08,West,271,9.0,12.0,85,0.00,,,0.00,Wunderground v.1.15,2013-01-03 19:12:00,
2013-01-03 14:13:00,26.6,22.7,30.08,West,259,9.0,12.0,85,0.00,,,0.00,Wunderground v.1.15,2013-01-03 19:13:00,
2013-01-03 14:14:00,26.6,22.4,30.08,West,269,9.0,12.0,84,0.00,,,0.00,Wunderground v.1.15,2013-01-03 19:14:00,
2013-01-03 14:16:00,26.6,22.4,30.08,WNW,303,8.0,10.0,84,0.00,,,0.00,Wunderground v.1.15,2013-01-03 19:16:00,
2013-01-03 14:18:00,26.7,22.8,30.08,West,261,9.0,12.0,85,0.00,,,0.00,Wunderground v.1.15,2013-01-03 19:18:00,
2013-01-03 14:53:00,27.4,23.8,30.09,West,273,9.0,12.0,86,0.00,,,0.00,Wunderground v.1.15,2013-01-03 19:53:00,
2013-01-03 14:54:00,27.4,23.8,30.09,West,271,9.0,12.0,86,0.00,,,0.00,Wunderground v.1.15,2013-01-03 19:54:00,
2013-01-03 14:55:00,27.4,23.8,30.09,WSW,257,8.0,8.0,86,0.00,,,0.00,Wunderground v.1.15,2013-01-03 19:55:00,
2013-01-03 14:56:00,27.4,23.8,30.09,WNW,299,8.0,8.0,86,0.00,,,0.00,Wunderground v.1.15,2013-01-03 19:56:00,
2013-01-03 15:00:00,27.5,23.9,30.09,West,276,8.0,8.0,86,0.00,,,0.00,Wunderground v.1.15,2013-01-03 20:00:00,
2013-01-03 15:01:00,27.5,23.9,30.09,West,263,8.0,8.0,86,0.00,,,0.00,Wunderground v.1.15,2013-01-03 20:01:00,
2013-01-03 15:03:00,27.5,23.9,30.09,West,259,8.0,8.0,86,0.00,,,0.00,Wunderground v.1.15,2013-01-03 20:03:00,
2013-01-03 15:05:00,27.5,23.9,30.09,West,269,8.0,8.0,86,0.00,,,0.00,Wunderground v.1.15,2013-01-03 20:05:00,
2013-01-03 15:06:00,27.6,24.0,30.09,West,275,8.0,8.0,86,0.00,,,0.00,Wunderground v.1.15,2013-01-03 20:06:00,
2013-01-03 15:09:00,27.7,24.1,30.09,West,265,8.0,11.0,86,0.00,,,0.00,Wunderground v.1.15,2013-01-03 20:09:00,
2013-01-03 15:11:00,27.7,24.3,30.09,West,269,8.0,9.0,87,0.00,,,0.00,Wunderground v.1.15,2013-01-03 20:11:00,
2013-01-03 15:14:00,27.8,24.2,30.10,West,277,8.0,9.0,86,0.00,,,0.00,Wunderground v.1.15,2013-01-03 20:14:00,
2013-01-03 15:15:00,27.8,24.2,30.10,WNW,282,8.0,9.0,86,0.00,,,0.00,Wunderground v.1.15,2013-01-03 20:15:00,
2013-01-03 15:18:00,27.8,24.2,30.10,West,267,8.0,11.0,86,0.00,,,0.00,Wunderground v.1.15,2013-01-03 20:18:00,
2013-01-03 15:19:00,27.8,24.2,30.10,West,269,8.0,12.0,86,0.00,,,0.00,Wunderground v.1.15,2013-01-03 20:19:00,
2013-01-03 15:21:00,27.9,24.3,30.10,West,268,9.0,15.0,86,0.00,,,0.00,Wunderground v.1.15,2013-01-03 20:21:00,
2013-01-03 15:23:00,27.9,24.3,30.10,West,266,9.0,15.0,86,0.00,,,0.00,Wunderground v.1.15,2013-01-03 20:23:00,
2013-01-03 15:24:00,28.0,24.4,30.10,West,274,9.0,15.0,86,0.00,,,0.00,Wunderground v.1.15,2013-01-03 20:24:00,
2013-01-03 15:27:00,28.0,24.6,30.10,WSW,252,10.0,16.0,87,0.00,,,0.00,Wunderground v.1.15,2013-01-03 20:27:00,
2013-01-03 15:29:00,28.0,24.4,30.10,West,270,11.0,16.0,86,0.00,,,0.00,Wunderground v.1.15,2013-01-03 20:29:00,
2013-01-03 15:30:00,28.0,24.4,30.10,West,270,11.0,11.0,86,0.00,,,0.00,Wunderground v.1.15,2013-01-03 20:30:00,
2013-01-03 15:31:00,28.0,24.4,30.10,West,268,12.0,12.0,86,0.00,,,0.00,Wunderground v.1.15,2013-01-03 20:31:00,
2013-01-03 15:32:00,28.1,24.5,30.10,West,271,12.0,15.0,86,0.00,,,0.00,Wunderground v.1.15,2013-01-03 20:32:00,
2013-01-03 15:34:00,28.1,24.5,30.10,West,270,12.0,15.0,86,0.00,,,0.00,Wunderground v.1.15,2013-01-03 20:34:00,
2013-01-03 15:37:00,28.1,24.7,30.10,West,268,11.0,15.0,87,0.00,,,0.00,Wunderground v.1.15,2013-01-03 20:37:00,
2013-01-03 15:38:00,28.1,24.7,30.10,West,271,11.0,15.0,87,0.00,,,0.00,Wunderground v.1.15,2013-01-03 20:38:00,
2013-01-03 15:40:00,28.1,24.5,30.10,WNW,286,11.0,11.0,86,0.00,,,0.00,Wunderground v.1.15,2013-01-03 20:40:00,
2013-01-03 15:43:00,28.2,24.8,30.10,West,278,11.0,12.0,87,0.00,,,0.00,Wunderground v.1.15,2013-01-03 20:43:00,
2013-01-03 15:44:00,28.2,24.8,30.10,West,268,11.0,12.0,87,0.00,,,0.00,Wunderground v.1.15,2013-01-03 20:44:00,
2013-01-03 15:45:00,28.1,24.5,30.10,West,261,12.0,12.0,86,0.00,,,0.00,Wunderground v.1.15,2013-01-03 20:45:00,
2013-01-03 15:46:00,28.2,24.8,30.10,West,277,12.0,12.0,87,0.00,,,0.00,Wunderground v.1.15,2013-01-03 20:46:00,
2013-01-03 15:51:00,28.2,24.8,30.10,WNW,294,12.0,12.0,87,0.00,,,0.00,Wunderground v.1.15,2013-01-03 20:51:00,
2013-01-03 15:52:00,28.2,24.8,30.10,WSW,257,12.0,12.0,87,0.00,,,0.00,Wunderground v.1.15,2013-01-03 20:52:00,
2013-01-03 15:54:00,28.2,24.8,30.10,WNW,296,11.0,15.0,87,0.00,,,0.00,Wunderground v.1.15,2013-01-03 20:54:00,
2013-01-03 15:58:00,28.2,24.8,30.11,West,266,12.0,16.0,87,0.00,,,0.00,Wunderground v.1.15,2013-01-03 20:58:00,
2013-01-03 16:01:00,28.2,24.8,30.11,West,267,11.0,11.0,87,0.00,,,0.00,Wunderground v.1.15,2013-01-03 21:01:00,
2013-01-03 16:02:00,28.2,24.8,30.11,West,263,11.0,11.0,87,0.00,,,0.00,Wunderground v.1.15,2013-01-03 21:02:00,
2013-01-03 16:03:00,28.2,24.8,30.11,West,274,11.0,12.0,87,0.00,,,0.00,Wunderground v.1.15,2013-01-03 21:03:00,
2013-01-03 16:06:00,28.2,24.8,30.11,WNW,284,10.0,12.0,87,0.00,,,0.00,Wunderground v.1.15,2013-01-03 21:06:00,
2013-01-03 16:07:00,28.3,24.9,30.11,West,278,10.0,12.0,87,0.00,,,0.00,Wunderground v.1.15,2013-01-03 21:07:00,
2013-01-03 16:11:00,28.3,24.9,30.11,WNW,291,10.0,12.0,87,0.00,,,0.00,Wunderground v.1.15,2013-01-03 21:11:00,
2013-01-03 16:12:00,28.3,24.9,30.11,West,265,10.0,14.0,87,0.00,,,0.00,Wunderground v.1.15,2013-01-03 21:12:00,
2013-01-03 16:17:00,28.3,24.9,30.11,WSW,257,11.0,15.0,87,0.00,,,0.00,Wunderground v.1.15,2013-01-03 21:17:00,
2013-01-03 16:18:00,28.3,24.9,30.11,West,264,11.0,15.0,87,0.00,,,0.00,Wunderground v.1.15,2013-01-03 21:18:00,
2013-01-03 16:21:00,28.3,24.9,30.11,West,279,11.0,11.0,87,0.00,,,0.00,Wunderground v.1.15,2013-01-03 21:21:00,
2013-01-03 16:22:00,28.3,24.9,30.11,West,273,11.0,11.0,87,0.00,,,0.00,Wunderground v.1.15,2013-01-03 21:22:00,
2013-01-03 16:23:00,28.3,24.9,30.11,West,266,10.0,11.0,87,0.00,,,0.00,Wunderground v.1.15,2013-01-03 21:23:00,
2013-01-03 16:26:00,28.3,24.9,30.11,West,273,11.0,14.0,87,0.00,,,0.00,Wunderground v.1.15,2013-01-03 21:26:00,
2013-01-03 16:27:00,28.3,24.9,30.11,WNW,291,11.0,14.0,87,0.00,,,0.00,Wunderground v.1.15,2013-01-03 21:27:00,
2013-01-03 16:28:00,28.3,24.9,30.11,WNW,289,11.0,14.0,87,0.00,,,0.00,Wunderground v.1.15,2013-01-03 21:28:00,
2013-01-03 16:31:00,28.4,25.0,30.12,West,272,12.0,12.0,87,0.00,,,0.00,Wunderground v.1.15,2013-01-03 21:31:00,
2013-01-03 16:32:00,28.4,25.0,30.12,West,277,12.0,12.0,87,0.00,,,0.00,Wunderground v.1.15,2013-01-03 21:32:00,
2013-01-03 16:35:00,28.4,25.0,30.12,West,274,12.0,12.0,87,0.00,,,0.00,Wunderground v.1.15,2013-01-03 21:35:00,
2013-01-03 16:36:00,28.3,24.9,30.12,West,269,12.0,12.0,87,0.00,,,0.00,Wunderground v.1.15,2013-01-03 21:36:00,
2013-01-03 16:39:00,28.4,25.0,30.12,West,272,11.0,12.0,87,0.00,,,0.00,Wunderground v.1.15,2013-01-03 21:39:00,
2013-01-03 16:40:00,28.3,24.9,30.12,WNW,282,10.0,12.0,87,0.00,,,0.00,Wunderground v.1.15,2013-01-03 21:40:00,
2013-01-03 16:44:00,28.4,25.0,30.12,WNW,291,11.0,16.0,87,0.00,,,0.00,Wunderground v.1.15,2013-01-03 21:44:00,
2013-01-03 16:46:00,28.4,25.0,30.12,West,271,11.0,16.0,87,0.00,,,0.00,Wunderground v.1.15,2013-01-03 21:46:00,
2013-01-03 16:49:00,28.4,25.3,30.12,West,270,11.0,16.0,88,0.00,,,0.00,Wunderground v.1.15,2013-01-03 21:49:00,
2013-01-03 16:52:00,28.4,25.3,30.12,West,277,12.0,15.0,88,0.00,,,0.00,Wunderground v.1.15,2013-01-03 21:52:00,
2013-01-03 16:54:00,28.4,25.3,30.12,West,268,11.0,15.0,88,0.00,,,0.00,Wunderground v.1.15,2013-01-03 21:54:00,
2013-01-03 16:55:00,28.4,25.3,30.12,West,268,12.0,15.0,88,0.00,,,0.00,Wunderground v.1.15,2013-01-03 21:55:00,
2013-01-03 16:57:00,28.4,25.3,30.13,West,267,12.0,15.0,88,0.00,,,0.00,Wunderground v.1.15,2013-01-03 21:57:00,
2013-01-03 16:58:00,28.4,25.3,30.12,West,268,12.0,15.0,88,0.00,,,0.00,Wunderground v.1.15,2013-01-03 21:58:00,
2013-01-03 17:01:00,28.5,25.4,30.13,West,274,11.0,12.0,88,0.00,,,0.00,Wunderground v.1.15,2013-01-03 22:01:00,
2013-01-03 17:03:00,28.5,25.4,30.13,West,271,10.0,12.0,88,0.00,,,0.00,Wunderground v.1.15,2013-01-03 22:03:00,
2013-01-03 17:06:00,28.5,25.4,30.13,West,270,10.0,14.0,88,0.00,,,0.00,Wunderground v.1.15,2013-01-03 22:06:00,
2013-01-03 17:09:00,28.5,25.4,30.13,West,273,9.0,14.0,88,0.00,,,0.00,Wunderground v.1.15,2013-01-03 22:09:00,
2013-01-03 17:10:00,28.5,25.4,30.13,West,268,10.0,10.0,88,0.00,,,0.00,Wunderground v.1.15,2013-01-03 22:10:00,
2013-01-03 17:14:00,28.6,25.5,30.13,West,264,10.0,11.0,88,0.00,,,0.00,Wunderground v.1.15,2013-01-03 22:14:00,
2013-01-03 17:17:00,28.5,25.4,30.13,West,281,10.0,11.0,88,0.00,,,0.00,Wunderground v.1.15,2013-01-03 22:17:00,
2013-01-03 17:20:00,28.5,25.4,30.13,West,263,9.0,9.0,88,0.00,,,0.00,Wunderground v.1.15,2013-01-03 22:20:00,
2013-01-03 17:21:00,28.6,25.5,30.14,West,266,8.0,9.0,88,0.00,,,0.00,Wunderground v.1.15,2013-01-03 22:21:00,
2013-01-03 17:23:00,28.6,25.5,30.13,WSW,257,8.0,14.0,88,0.00,,,0.00,Wunderground v.1.15,2013-01-03 22:23:00,
2013-01-03 17:27:00,28.6,25.5,30.14,West,270,9.0,17.0,88,0.00,,,0.00,Wunderground v.1.15,2013-01-03 22:27:00,
2013-01-03 17:28:00,28.6,25.5,30.14,WSW,257,9.0,17.0,88,0.00,,,0.00,Wunderground v.1.15,2013-01-03 22:28:00,
2013-01-03 17:30:00,28.7,25.6,30.14,West,281,9.0,13.0,88,0.00,,,0.00,Wunderground v.1.15,2013-01-03 22:30:00,
2013-01-03 17:31:00,28.7,25.6,30.14,West,269,10.0,13.0,88,0.00,,,0.00,Wunderground v.1.15,2013-01-03 22:31:00,
2013-01-03 17:32:00,28.7,25.6,30.14,West,281,10.0,13.0,88,0.00,,,0.00,Wunderground v.1.15,2013-01-03 22:32:00,
2013-01-03 17:33:00,28.7,25.6,30.14,West,271,10.0,13.0,88,0.00,,,0.00,Wunderground v.1.15,2013-01-03 22:33:00,
2013-01-03 17:36:00,28.7,25.6,30.14,WNW,283,10.0,13.0,88,0.00,,,0.00,Wunderground v.1.15,2013-01-03 22:36:00,
2013-01-03 17:37:00,28.8,25.7,30.14,WNW,284,10.0,13.0,88,0.00,,,0.00,Wunderground v.1.15,2013-01-03 22:37:00,
2013-01-03 17:38:00,28.8,25.7,30.14,West,263,9.0,13.0,88,0.00,,,0.00,Wunderground v.1.15,2013-01-03 22:38:00,
2013-01-03 17:42:00,28.8,25.7,30.14,WNW,282,9.0,14.0,88,0.00,,,0.00,Wunderground v.1.15,2013-01-03 22:42:00,
2013-01-03 17:43:00,28.8,25.7,30.14,West,277,10.0,14.0,88,0.00,,,0.00,Wunderground v.1.15,2013-01-03 22:43:00,
2013-01-03 17:45:00,28.9,25.8,30.14,West,275,10.0,14.0,88,0.00,,,0.00,Wunderground v.1.15,2013-01-03 22:45:00,
2013-01-03 17:47:00,28.9,25.8,30.14,West,269,9.0,14.0,88,0.00,,,0.00,Wunderground v.1.15,2013-01-03 22:47:00,
2013-01-03 17:49:00,28.9,25.8,30.15,West,273,9.0,14.0,88,0.00,,,0.00,Wunderground v.1.15,2013-01-03 22:49:00,
2013-01-03 17:50:00,28.9,25.8,30.14,West,269,9.0,12.0,88,0.00,,,0.00,Wunderground v.1.15,2013-01-03 22:50:00,
2013-01-03 17:53:00,28.9,25.8,30.15,West,274,10.0,12.0,88,0.00,,,0.00,Wunderground v.1.15,2013-01-03 22:53:00,
2013-01-03 17:54:00,28.9,25.8,30.15,West,277,10.0,19.0,88,0.00,,,0.00,Wunderground v.1.15,2013-01-03 22:54:00,
2013-01-03 17:55:00,29.0,25.9,30.15,West,268,10.0,19.0,88,0.00,,,0.00,Wunderground v.1.15,2013-01-03 22:55:00,
2013-01-03 17:56:00,29.0,25.9,30.15,West,266,11.0,19.0,88,0.00,,,0.00,Wunderground v.1.15,2013-01-03 22:56:00,
2013-01-03 18:01:00,29.0,25.9,30.15,West,273,12.0,19.0,88,0.00,,,0.00,Wunderground v.1.15,2013-01-03 23:01:00,
2013-01-03 18:02:00,29.0,25.9,30.15,West,270,13.0,19.0,88,0.00,,,0.00,Wunderground v.1.15,2013-01-03 23:02:00,
2013-01-03 18:04:00,29.0,25.9,30.15,West,268,13.0,19.0,88,0.00,,,0.00,Wunderground v.1.15,2013-01-03 23:04:00,
2013-01-03 18:05:00,29.0,25.9,30.15,West,268,13.0,19.0,88,0.00,,,0.00,Wunderground v.1.15,2013-01-03 23:05:00,
2013-01-03 18:08:00,29.0,25.9,30.15,West,273,12.0,19.0,88,0.00,,,0.00,Wunderground v.1.15,2013-01-03 23:08:00,
2013-01-03 18:12:00,29.0,25.9,30.15,West,278,12.0,12.0,88,0.00,,,0.00,Wunderground v.1.15,2013-01-03 23:12:00,
2013-01-03 18:13:00,29.1,26.0,30.15,WNW,282,12.0,12.0,88,0.00,,,0.00,Wunderground v.1.15,2013-01-03 23:13:00,
2013-01-03 18:14:00,29.1,26.0,30.15,WNW,282,11.0,13.0,88,0.00,,,0.00,Wunderground v.1.15,2013-01-03 23:14:00,
2013-01-03 18:15:00,29.1,26.0,30.15,West,280,11.0,13.0,88,0.00,,,0.00,Wunderground v.1.15,2013-01-03 23:15:00,
2013-01-03 18:18:00,29.1,26.0,30.16,West,276,11.0,14.0,88,0.00,,,0.00,Wunderground v.1.15,2013-01-03 23:18:00,
2013-01-03 18:19:00,29.1,26.0,30.16,WSW,252,11.0,14.0,88,0.00,,,0.00,Wunderground v.1.15,2013-01-03 23:19:00,
2013-01-03 18:25:00,29.1,26.0,30.16,WSW,257,10.0,11.0,88,0.00,,,0.00,Wunderground v.1.15,2013-01-03 23:25:00,
2013-01-03 18:26:00,29.1,26.0,30.16,WNW,288,10.0,11.0,88,0.00,,,0.00,Wunderground v.1.15,2013-01-03 23:26:00,
2013-01-03 18:28:00,29.2,26.1,30.16,WNW,289,9.0,11.0,88,0.00,,,0.00,Wunderground v.1.15,2013-01-03 23:28:00,
2013-01-03 18:31:00,29.2,25.8,30.16,West,271,9.0,9.0,87,0.00,,,0.00,Wunderground v.1.15,2013-01-03 23:31:00,
2013-01-03 18:33:00,29.2,25.8,30.16,West,273,9.0,12.0,87,0.00,,,0.00,Wunderground v.1.15,2013-01-03 23:33:00,
2013-01-03 18:34:00,29.2,25.8,30.16,West,276,9.0,12.0,87,0.00,,,0.00,Wunderground v.1.15,2013-01-03 23:34:00,
2013-01-03 18:36:00,29.2,25.8,30.16,West,271,9.0,12.0,87,0.00,,,0.00,Wunderground v.1.15,2013-01-03 23:36:00,
2013-01-03 18:39:00,29.2,25.8,30.16,West,278,9.0,15.0,87,0.00,,,0.00,Wunderground v.1.15,2013-01-03 23:39:00,
2013-01-03 18:41:00,29.2,25.8,30.16,WNW,299,10.0,10.0,87,0.00,,,0.00,Wunderground v.1.15,2013-01-03 23:41:00,
2013-01-03 18:42:00,29.2,25.8,30.16,West,277,10.0,10.0,87,0.00,,,0.00,Wunderground v.1.15,2013-01-03 23:42:00,
2013-01-03 18:47:00,29.3,25.9,30.16,West,277,9.0,11.0,87,0.00,,,0.00,Wunderground v.1.15,2013-01-03 23:47:00,
2013-01-03 18:49:00,29.3,25.9,30.16,West,259,9.0,12.0,87,0.00,,,0.00,Wunderground v.1.15,2013-01-03 23:49:00,
2013-01-03 18:50:00,29.3,25.9,30.17,West,261,9.0,9.0,87,0.00,,,0.00,Wunderground v.1.15,2013-01-03 23:50:00,
2013-01-03 18:51:00,29.3,25.9,30.17,West,275,9.0,13.0,87,0.00,,,0.00,Wunderground v.1.15,2013-01-03 23:51:00,
2013-01-03 18:53:00,29.3,25.6,30.17,West,275,9.0,13.0,86,0.00,,,0.00,Wunderground v.1.15,2013-01-03 23:53:00,
2013-01-03 18:56:00,29.3,25.6,30.17,West,275,9.0,13.0,86,0.00,,,0.00,Wunderground v.1.15,2013-01-03 23:56:00,
2013-01-03 18:58:00,29.3,25.6,30.17,WNW,282,10.0,13.0,86,0.00,,,0.00,Wunderground v.1.15,2013-01-03 23:58:00,
2013-01-03 19:00:00,29.3,25.6,30.17,West,275,10.0,11.0,86,0.00,,,0.00,Wunderground v.1.15,2013-01-04 00:00:00,
2013-01-03 19:03:00,29.3,25.6,30.17,WNW,284,10.0,16.0,86,0.00,,,0.00,Wunderground v.1.15,2013-01-04 00:03:00,
2013-01-03 19:04:00,29.3,25.6,30.17,West,273,10.0,16.0,86,0.00,,,0.00,Wunderground v.1.15,2013-01-04 00:04:00,
2013-01-03 19:05:00,29.3,25.6,30.17,West,274,10.0,16.0,86,0.00,,,0.00,Wunderground v.1.15,2013-01-04 00:05:00,
2013-01-03 19:08:00,29.4,25.7,30.17,NW,314,9.0,16.0,86,0.00,,,0.00,Wunderground v.1.15,2013-01-04 00:08:00,
2013-01-03 19:10:00,29.3,25.6,30.17,WNW,289,9.0,9.0,86,0.00,,,0.00,Wunderground v.1.15,2013-01-04 00:10:00,
2013-01-03 19:11:00,29.3,25.6,30.17,West,269,9.0,13.0,86,0.00,,,0.00,Wunderground v.1.15,2013-01-04 00:11:00,
2013-01-03 19:13:00,29.4,25.4,30.17,WNW,289,9.0,13.0,85,0.00,,,0.00,Wunderground v.1.15,2013-01-04 00:13:00,
2013-01-03 19:17:00,29.3,25.4,30.17,West,277,8.0,13.0,85,0.00,,,0.00,Wunderground v.1.15,2013-01-04 00:17:00,
2013-01-03 19:19:00,29.4,25.4,30.17,West,279,9.0,13.0,85,0.00,,,0.00,Wunderground v.1.15,2013-01-04 00:19:00,
2013-01-03 19:21:00,29.3,25.4,30.17,West,280,9.0,9.0,85,0.00,,,0.00,Wunderground v.1.15,2013-01-04 00:21:00,
2013-01-03 19:25:00,29.3,25.4,30.17,WNW,299,9.0,12.0,85,0.00,,,0.00,Wunderground v.1.15,2013-01-04 00:25:00,
2013-01-03 19:26:00,29.3,25.4,30.18,WSW,256,9.0,12.0,85,0.00,,,0.00,Wunderground v.1.15,2013-01-04 00:26:00,
2013-01-03 19:28:00,29.3,25.4,30.17,West,263,9.0,12.0,85,0.00,,,0.00,Wunderground v.1.15,2013-01-04 00:28:00,
2013-01-03 19:30:00,29.4,25.4,30.17,West,277,9.0,9.0,85,0.00,,,0.00,Wunderground v.1.15,2013-01-04 00:30:00,
2013-01-03 19:31:00,29.3,25.4,30.17,West,271,9.0,9.0,85,0.00,,,0.00,Wunderground v.1.15,2013-01-04 00:31:00,
2013-01-03 19:33:00,29.3,25.4,30.17,SW,232,9.0,10.0,85,0.00,,,0.00,Wunderground v.1.15,2013-01-04 00:33:00,
2013-01-03 19:34:00,29.3,25.4,30.17,WNW,285,8.0,10.0,85,0.00,,,0.00,Wunderground v.1.15,2013-01-04 00:34:00,
2013-01-03 19:36:00,29.3,25.4,30.17,West,273,8.0,11.0,85,0.00,,,0.00,Wunderground v.1.15,2013-01-04 00:36:00,
2013-01-03 19:39:00,29.3,25.4,30.18,West,273,8.0,16.0,85,0.00,,,0.00,Wunderground v.1.15,2013-01-04 00:39:00,
2013-01-03 19:40:00,29.3,25.4,30.18,West,263,8.0,9.0,85,0.00,,,0.00,Wunderground v.1.15,2013-01-04 00:40:00,
2013-01-03 19:44:00,29.3,25.4,30.17,West,277,8.0,9.0,85,0.00,,,0.00,Wunderground v.1.15,2013-01-04 00:44:00,
2013-01-03 19:45:00,29.3,25.4,30.17,West,277,7.0,9.0,85,0.00,,,0.00,Wunderground v.1.15,2013-01-04 00:45:00,
2013-01-03 19:47:00,29.3,25.4,30.18,WSW,254,8.0,13.0,85,0.00,,,0.00,Wunderground v.1.15,2013-01-04 00:47:00,
2013-01-03 19:49:00,29.3,25.4,30.18,West,262,7.0,7.0,85,0.00,,,0.00,Wunderground v.1.15,2013-01-04 00:49:00,
2013-01-03 19:51:00,29.3,25.4,30.18,West,268,7.0,8.0,85,0.00,,,0.00,Wunderground v.1.15,2013-01-04 00:51:00,
2013-01-03 19:52:00,29.3,25.1,30.18,West,279,7.0,10.0,84,0.00,,,0.00,Wunderground v.1.15,2013-01-04 00:52:00,
2013-01-03 19:54:00,29.3,25.1,30.18,WNW,289,8.0,11.0,84,0.00,,,0.00,Wunderground v.1.15,2013-01-04 00:54:00,
2013-01-03 19:56:00,29.3,25.1,30.18,West,270,8.0,11.0,84,0.00,,,0.00,Wunderground v.1.15,2013-01-04 00:56:00,
2013-01-03 19:57:00,29.3,25.1,30.18,West,277,7.0,11.0,84,0.00,,,0.00,Wunderground v.1.15,2013-01-04 00:57:00,
2013-01-03 20:00:00,29.3,25.1,30.18,West,266,7.0,7.0,84,0.00,,,0.00,Wunderground v.1.15,2013-01-04 01:00:00,
2013-01-03 20:01:00,29.3,25.1,30.18,WNW,303,7.0,7.0,84,0.00,,,0.00,Wunderground v.1.15,2013-01-04 01:01:00,
2013-01-03 20:02:00,29.3,25.1,30.18,WSW,249,7.0,7.0,84,0.00,,,0.00,Wunderground v.1.15,2013-01-04 01:02:00,
2013-01-03 20:03:00,29.3,25.1,30.18,West,275,6.0,7.0,84,0.00,,,0.00,Wunderground v.1.15,2013-01-04 01:03:00,
2013-01-03 20:05:00,29.2,25.0,30.18,WNW,284,6.0,7.0,84,0.00,,,0.00,Wunderground v.1.15,2013-01-04 01:05:00,
2013-01-03 20:08:00,29.2,25.0,30.18,WNW,303,6.0,7.0,84,0.00,,,0.00,Wunderground v.1.15,2013-01-04 01:08:00,
2013-01-03 20:12:00,29.2,25.0,30.18,NE,39,6.0,8.0,84,0.00,,,0.00,Wunderground v.1.15,2013-01-04 01:12:00,
2013-01-03 20:14:00,29.2,25.0,30.18,West,280,6.0,8.0,84,0.00,,,0.00,Wunderground v.1.15,2013-01-04 01:14:00,
2013-01-03 20:17:00,29.2,25.0,30.18,SW,223,6.0,8.0,84,0.00,,,0.00,Wunderground v.1.15,2013-01-04 01:17:00,
2013-01-03 20:20:00,29.2,25.0,30.18,West,274,6.0,8.0,84,0.00,,,0.00,Wunderground v.1.15,2013-01-04 01:20:00,
2013-01-03 20:21:00,29.1,24.9,30.18,WNW,289,6.0,8.0,84,0.00,,,0.00,Wunderground v.1.15,2013-01-04 01:21:00,
2013-01-03 20:22:00,29.1,24.9,30.18,WNW,291,5.0,8.0,84,0.00,,,0.00,Wunderground v.1.15,2013-01-04 01:22:00,
2013-01-03 20:23:00,29.1,25.2,30.18,WNW,291,5.0,8.0,85,0.00,,,0.00,Wunderground v.1.15,2013-01-04 01:23:00,
2013-01-03 20:28:00,29.1,25.2,30.18,West,278,4.0,8.0,85,0.00,,,0.00,Wunderground v.1.15,2013-01-04 01:28:00,
2013-01-03 20:29:00,29.0,24.8,30.18,WNW,285,4.0,8.0,84,0.00,,,0.00,Wunderground v.1.15,2013-01-04 01:29:00,
2013-01-03 20:30:00,29.0,24.8,30.18,WNW,294,5.0,6.0,84,0.00,,,0.00,Wunderground v.1.15,2013-01-04 01:30:00,
2013-01-03 20:32:00,29.0,24.8,30.18,West,271,5.0,6.0,84,0.00,,,0.00,Wunderground v.1.15,2013-01-04 01:32:00,
2013-01-03 20:33:00,29.0,24.8,30.18,WSW,256,5.0,6.0,84,0.00,,,0.00,Wunderground v.1.15,2013-01-04 01:33:00,
2013-01-03 20:35:00,28.9,24.7,30.18,West,275,6.0,6.0,84,0.00,,,0.00,Wunderground v.1.15,2013-01-04 01:35:00,
2013-01-03 20:38:00,28.9,25.0,30.18,West,270,6.0,6.0,85,0.00,,,0.00,Wunderground v.1.15,2013-01-04 01:38:00,
2013-01-03 20:39:00,28.9,24.7,30.18,West,270,6.0,7.0,84,0.00,,,0.00,Wunderground v.1.15,2013-01-04 01:39:00,
2013-01-03 20:43:00,28.9,25.0,30.18,NW,325,5.0,7.0,85,0.00,,,0.00,Wunderground v.1.15,2013-01-04 01:43:00,
2013-01-03 20:44:00,28.8,24.9,30.18,WNW,298,5.0,7.0,85,0.00,,,0.00,Wunderground v.1.15,2013-01-04 01:44:00,
2013-01-03 20:46:00,28.8,24.9,30.18,WNW,287,5.0,7.0,85,0.00,,,0.00,Wunderground v.1.15,2013-01-04 01:46:00,
2013-01-03 20:47:00,28.8,24.9,30.18,WSW,252,5.0,7.0,85,0.00,,,0.00,Wunderground v.1.15,2013-01-04 01:47:00,
2013-01-03 20:49:00,28.8,24.9,30.18,West,279,5.0,7.0,85,0.00,,,0.00,Wunderground v.1.15,2013-01-04 01:49:00,
2013-01-03 20:53:00,28.8,24.9,30.18,West,273,5.0,8.0,85,0.00,,,0.00,Wunderground v.1.15,2013-01-04 01:53:00,
2013-01-03 20:55:00,28.8,24.9,30.18,West,271,5.0,8.0,85,0.00,,,0.00,Wunderground v.1.15,2013-01-04 01:55:00,
2013-01-03 20:57:00,28.7,24.8,30.18,West,266,5.0,8.0,85,0.00,,,0.00,Wunderground v.1.15,2013-01-04 01:57:00,
2013-01-03 20:59:00,28.7,24.8,30.18,West,277,5.0,8.0,85,0.00,,,0.00,Wunderground v.1.15,2013-01-04 01:59:00,
2013-01-03 21:00:00,28.7,24.8,30.18,WNW,289,4.0,8.0,85,0.00,,,0.00,Wunderground v.1.15,2013-01-04 02:00:00,
2013-01-03 21:05:00,28.7,24.5,30.18,NW,306,6.0,9.0,84,0.00,,,0.00,Wunderground v.1.15,2013-01-04 02:05:00,
2013-01-03 21:06:00,28.6,24.7,30.18,West,269,6.0,9.0,85,0.00,,,0.00,Wunderground v.1.15,2013-01-04 02:06:00,
2013-01-03 21:08:00,28.6,24.7,30.18,West,281,6.0,9.0,85,0.00,,,0.00,Wunderground v.1.15,2013-01-04 02:08:00,
2013-01-03 21:10:00,28.6,24.7,30.18,West,272,6.0,6.0,85,0.00,,,0.00,Wunderground v.1.15,2013-01-04 02:10:00,
2013-01-03 21:15:00,28.6,24.4,30.18,NW,310,6.0,12.0,84,0.00,,,0.00,Wunderground v.1.15,2013-01-04 02:15:00,
2013-01-03 21:16:00,28.6,24.4,30.18,SW,223,6.0,12.0,84,0.00,,,0.00,Wunderground v.1.15,2013-01-04 02:16:00,
2013-01-03 21:18:00,28.5,24.3,30.18,WNW,286,6.0,12.0,84,0.00,,,0.00,Wunderground v.1.15,2013-01-04 02:18:00,
2013-01-03 21:20:00,28.5,24.3,30.18,West,275,7.0,7.0,84,0.00,,,0.00,Wunderground v.1.15,2013-01-04 02:20:00,
2013-01-03 21:21:00,28.5,24.3,30.18,WNW,286,7.0,9.0,84,0.00,,,0.00,Wunderground v.1.15,2013-01-04 02:21:00,
2013-01-03 21:23:00,28.5,24.3,30.18,WSW,249,7.0,11.0,84,0.00,,,0.00,Wunderground v.1.15,2013-01-04 02:23:00,
2013-01-03 21:25:00,28.5,24.3,30.18,WNW,283,7.0,11.0,84,0.00,,,0.00,Wunderground v.1.15,2013-01-04 02:25:00,
2013-01-03 21:26:00,28.5,24.3,30.18,NW,305,7.0,11.0,84,0.00,,,0.00,Wunderground v.1.15,2013-01-04 02:26:00,
2013-01-03 21:29:00,28.5,24.3,30.18,West,269,8.0,11.0,84,0.00,,,0.00,Wunderground v.1.15,2013-01-04 02:29:00,
2013-01-03 21:31:00,28.4,24.2,30.18,West,276,8.0,9.0,84,0.00,,,0.00,Wunderground v.1.15,2013-01-04 02:31:00,
2013-01-03 21:34:00,28.4,24.2,30.18,West,275,7.0,10.0,84,0.00,,,0.00,Wunderground v.1.15,2013-01-04 02:34:00,
2013-01-03 21:36:00,28.4,24.2,30.18,West,277,7.0,11.0,84,0.00,,,0.00,Wunderground v.1.15,2013-01-04 02:36:00,
2013-01-03 21:38:00,28.4,23.9,30.18,WNW,287,7.0,11.0,83,0.00,,,0.00,Wunderground v.1.15,2013-01-04 02:38:00,
2013-01-03 21:39:00,28.4,23.9,30.18,WNW,292,8.0,11.0,83,0.00,,,0.00,Wunderground v.1.15,2013-01-04 02:39:00,
2013-01-03 21:40:00,28.4,23.9,30.18,West,280,8.0,8.0,83,0.00,,,0.00,Wunderground v.1.15,2013-01-04 02:40:00,
2013-01-03 21:44:00,28.3,23.8,30.18,West,275,8.0,14.0,83,0.00,,,0.00,Wunderground v.1.15,2013-01-04 02:44:00,
2013-01-03 21:45:00,28.3,23.8,30.18,West,271,8.0,14.0,83,0.00,,,0.00,Wunderground v.1.15,2013-01-04 02:45:00,
2013-01-03 21:46:00,28.3,23.8,30.18,West,269,8.0,14.0,83,0.00,,,0.00,Wunderground v.1.15,2013-01-04 02:46:00,
2013-01-03 21:50:00,28.3,23.8,30.18,WNW,289,8.0,8.0,83,0.00,,,0.00,Wunderground v.1.15,2013-01-04 02:50:00,
2013-01-03 21:52:00,28.3,23.8,30.19,West,270,7.0,10.0,83,0.00,,,0.00,Wunderground v.1.15,2013-01-04 02:52:00,
2013-01-03 21:57:00,28.3,23.5,30.19,West,278,8.0,14.0,82,0.00,,,0.00,Wunderground v.1.15,2013-01-04 02:57:00,
2013-01-03 22:01:00,28.3,23.5,30.19,WNW,291,8.0,9.0,82,0.00,,,0.00,Wunderground v.1.15,2013-01-04 03:01:00,
2013-01-03 22:02:00,28.3,23.5,30.19,West,264,8.0,13.0,82,0.00,,,0.00,Wunderground v.1.15,2013-01-04 03:02:00,
2013-01-03 22:03:00,28.2,23.4,30.18,West,279,8.0,15.0,82,0.00,,,0.00,Wunderground v.1.15,2013-01-04 03:03:00,
2013-01-03 22:05:00,28.2,23.1,30.18,West,278,10.0,19.0,81,0.00,,,0.00,Wunderground v.1.15,2013-01-04 03:05:00,
2013-01-03 22:09:00,28.2,22.8,30.19,West,266,10.0,19.0,80,0.00,,,0.00,Wunderground v.1.15,2013-01-04 03:09:00,
2013-01-03 22:12:00,28.2,22.8,30.19,West,270,9.0,10.0,80,0.00,,,0.00,Wunderground v.1.15,2013-01-04 03:12:00,
2013-01-03 22:14:00,28.2,22.8,30.19,WNW,284,8.0,13.0,80,0.00,,,0.00,Wunderground v.1.15,2013-01-04 03:14:00,
2013-01-03 22:15:00,28.2,22.8,30.19,WNW,288,8.0,13.0,80,0.00,,,0.00,Wunderground v.1.15,2013-01-04 03:15:00,
2013-01-03 22:20:00,28.2,22.8,30.19,WNW,284,8.0,9.0,80,0.00,,,0.00,Wunderground v.1.15,2013-01-04 03:20:00,
2013-01-03 22:23:00,28.2,22.8,30.18,WSW,256,9.0,11.0,80,0.00,,,0.00,Wunderground v.1.15,2013-01-04 03:23:00,
2013-01-03 22:25:00,28.2,22.8,30.19,West,259,10.0,11.0,80,0.00,,,0.00,Wunderground v.1.15,2013-01-04 03:25:00,
2013-01-03 22:28:00,28.2,22.8,30.18,WNW,284,9.0,11.0,80,0.00,,,0.00,Wunderground v.1.15,2013-01-04 03:28:00,
2013-01-03 22:31:00,28.2,22.8,30.18,West,268,10.0,12.0,80,0.00,,,0.00,Wunderground v.1.15,2013-01-04 03:31:00,
2013-01-03 22:32:00,28.3,22.9,30.18,WNW,288,10.0,12.0,80,0.00,,,0.00,Wunderground v.1.15,2013-01-04 03:32:00,
2013-01-03 22:33:00,28.3,22.9,30.18,West,277,10.0,12.0,80,0.00,,,0.00,Wunderground v.1.15,2013-01-04 03:33:00,
2013-01-03 22:35:00,28.3,22.9,30.18,WSW,252,9.0,12.0,80,0.00,,,0.00,Wunderground v.1.15,2013-01-04 03:35:00,
2013-01-03 22:36:00,28.3,22.9,30.18,West,276,9.0,12.0,80,0.00,,,0.00,Wunderground v.1.15,2013-01-04 03:36:00,
2013-01-03 22:37:00,28.3,22.9,30.18,West,273,10.0,12.0,80,0.00,,,0.00,Wunderground v.1.15,2013-01-04 03:37:00,
2013-01-03 22:39:00,28.3,22.9,30.18,West,266,10.0,12.0,80,0.00,,,0.00,Wunderground v.1.15,2013-01-04 03:39:00,
2013-01-03 22:40:00,28.3,22.9,30.18,West,277,9.0,9.0,80,0.00,,,0.00,Wunderground v.1.15,2013-01-04 03:40:00,
2013-01-03 22:41:00,28.3,22.9,30.18,West,273,8.0,9.0,80,0.00,,,0.00,Wunderground v.1.15,2013-01-04 03:41:00,
2013-01-03 22:44:00,28.3,22.6,30.18,WNW,287,8.0,14.0,79,0.00,,,0.00,Wunderground v.1.15,2013-01-04 03:44:00,
2013-01-03 22:45:00,28.3,22.6,30.18,West,275,8.0,14.0,79,0.00,,,0.00,Wunderground v.1.15,2013-01-04 03:45:00,
2013-01-03 22:46:00,28.3,22.6,30.18,West,280,8.0,14.0,79,0.00,,,0.00,Wunderground v.1.15,2013-01-04 03:46:00,
2013-01-03 22:50:00,28.3,22.6,30.18,WNW,284,8.0,12.0,79,0.00,,,0.00,Wunderground v.1.15,2013-01-04 03:50:00,
2013-01-03 22:51:00,28.4,22.7,30.18,West,275,9.0,12.0,79,0.00,,,0.00,Wunderground v.1.15,2013-01-04 03:51:00,
2013-01-03 22:53:00,28.4,22.7,30.18,West,270,9.0,12.0,79,0.00,,,0.00,Wunderground v.1.15,2013-01-04 03:53:00,
2013-01-03 22:55:00,28.4,22.7,30.18,WNW,282,8.0,12.0,79,0.00,,,0.00,Wunderground v.1.15,2013-01-04 03:55:00,
2013-01-03 22:58:00,28.4,22.7,30.18,West,267,9.0,12.0,79,0.00,,,0.00,Wunderground v.1.15,2013-01-04 03:58:00,
2013-01-03 22:59:00,28.4,22.7,30.18,WNW,284,9.0,12.0,79,0.00,,,0.00,Wunderground v.1.15,2013-01-04 03:59:00,
2013-01-03 23:02:00,28.5,22.5,30.18,West,263,8.0,10.0,78,0.00,,,0.00,Wunderground v.1.15,2013-01-04 04:02:00,
2013-01-03 23:04:00,28.5,22.5,30.18,WSW,255,9.0,10.0,78,0.00,,,0.00,Wunderground v.1.15,2013-01-04 04:04:00,
2013-01-03 23:05:00,28.5,22.5,30.18,West,275,8.0,10.0,78,0.00,,,0.00,Wunderground v.1.15,2013-01-04 04:05:00,
2013-01-03 23:08:00,28.5,22.8,30.18,WNW,282,7.0,10.0,79,0.00,,,0.00,Wunderground v.1.15,2013-01-04 04:08:00,
2013-01-03 23:09:00,28.5,22.8,30.18,West,267,7.0,10.0,79,0.00,,,0.00,Wunderground v.1.15,2013-01-04 04:09:00,
2013-01-03 23:10:00,28.5,22.8,30.18,WNW,286,7.0,7.0,79,0.00,,,0.00,Wunderground v.1.15,2013-01-04 04:10:00,
2013-01-03 23:11:00,28.5,22.5,30.18,West,278,7.0,12.0,78,0.00,,,0.00,Wunderground v.1.15,2013-01-04 04:11:00,
2013-01-03 23:13:00,28.5,22.5,30.18,West,268,7.0,12.0,78,0.00,,,0.00,Wunderground v.1.15,2013-01-04 04:13:00,
2013-01-03 23:14:00,28.5,22.5,30.18,WNW,297,7.0,12.0,78,0.00,,,0.00,Wunderground v.1.15,2013-01-04 04:14:00,
2013-01-03 23:16:00,28.5,22.5,30.18,West,274,7.0,13.0,78,0.00,,,0.00,Wunderground v.1.15,2013-01-04 04:16:00,
2013-01-03 23:19:00,28.6,22.6,30.18,West,278,8.0,13.0,78,0.00,,,0.00,Wunderground v.1.15,2013-01-04 04:19:00,
2013-01-03 23:21:00,28.6,22.6,30.18,West,277,8.0,11.0,78,0.00,,,0.00,Wunderground v.1.15,2013-01-04 04:21:00,
2013-01-03 23:23:00,28.6,22.6,30.18,West,275,8.0,11.0,78,0.00,,,0.00,Wunderground v.1.15,2013-01-04 04:23:00,
2013-01-03 23:24:00,28.6,22.6,30.18,West,265,7.0,11.0,78,0.00,,,0.00,Wunderground v.1.15,2013-01-04 04:24:00,
2013-01-03 23:29:00,28.6,22.6,30.17,WNW,289,7.0,11.0,78,0.00,,,0.00,Wunderground v.1.15,2013-01-04 04:29:00,
2013-01-03 23:30:00,28.6,22.6,30.17,West,273,7.0,8.0,78,0.00,,,0.00,Wunderground v.1.15,2013-01-04 04:30:00,
2013-01-03 23:32:00,28.6,22.6,30.17,WNW,291,7.0,20.0,78,0.00,,,0.00,Wunderground v.1.15,2013-01-04 04:32:00,
2013-01-03 23:34:00,28.6,22.6,30.17,West,268,8.0,20.0,78,0.00,,,0.00,Wunderground v.1.15,2013-01-04 04:34:00,
2013-01-03 23:37:00,28.6,22.6,30.16,West,272,8.0,20.0,78,0.00,,,0.00,Wunderground v.1.15,2013-01-04 04:37:00,
2013-01-03 23:40:00,28.6,22.6,30.16,West,270,8.0,8.0,78,0.00,,,0.00,Wunderground v.1.15,2013-01-04 04:40:00,
2013-01-03 23:42:00,28.6,22.6,30.16,WSW,250,8.0,20.0,78,0.00,,,0.00,Wunderground v.1.15,2013-01-04 04:42:00,
2013-01-03 23:43:00,28.6,22.6,30.16,West,266,8.0,20.0,78,0.00,,,0.00,Wunderground v.1.15,2013-01-04 04:43:00,
2013-01-03 23:45:00,28.6,22.6,30.16,West,270,8.0,20.0,78,0.00,,,0.00,Wunderground v.1.15,2013-01-04 04:45:00,
2013-01-03 23:48:00,28.6,22.9,30.16,West,265,8.0,20.0,79,0.00,,,0.00,Wunderground v.1.15,2013-01-04 04:48:00,
2013-01-03 23:50:00,28.6,22.9,30.16,West,275,8.0,20.0,79,0.00,,,0.00,Wunderground v.1.15,2013-01-04 04:50:00,
2013-01-03 23:51:00,28.6,22.9,30.16,West,274,9.0,20.0,79,0.00,,,0.00,Wunderground v.1.15,2013-01-04 04:51:00,
2013-01-03 23:53:00,28.6,22.6,30.16,West,270,9.0,20.0,78,0.00,,,0.00,Wunderground v.1.15,2013-01-04 04:53:00,
2013-01-03 23:56:00,28.6,22.9,30.16,West,268,9.0,20.0,79,0.00,,,0.00,Wunderground v.1.15,2013-01-04 04:56:00,
2013-01-03 23:57:00,28.6,22.6,30.16,WSW,254,9.0,20.0,78,0.00,,,0.00,Wunderground v.1.15,2013-01-04 04:57:00,
2013-01-03 23:59:00,28.6,22.6,30.16,West,272,10.0,20.0,78,0.00,,,0.00,Wunderground v.1.15,2013-01-04 04:59:00,